| time (UTC) | temp F | wind direction | speed MPH | gust MPH | rain 1hr in | rain 24hr in | rain mn in | humidity % | barometer mb |
| 20260505184357 | 80 | 0 | 2.0 | 6.0 | 0.00 | 0.00 | 0.00 | 86 | 1009.2 |
| 20260505184257 | 80 | 161 | 1.0 | 6.0 | 0.00 | 0.00 | 0.00 | 86 | 1009.3 |
| 20260505184157 | 80 | 216 | 1.0 | 5.0 | 0.00 | 0.00 | 0.00 | 86 | 1009.3 |
| 20260505184059 | 80 | 272 | 1.0 | 5.0 | 0.00 | 0.00 | 0.00 | 86 | 1009.3 |
| 20260505184053 | 80 | 255 | 1.0 | 5.0 | 0.00 | 0.00 | 0.00 | 86 | 1009.3 |
| 20260505183957 | 80 | 0 | 1.0 | 5.0 | 0.00 | 0.00 | 0.00 | 86 | 1009.3 |
| 20260505183858 | 80 | 217 | 1.0 | 5.0 | 0.00 | 0.00 | 0.00 | 86 | 1009.3 |
| 20260505183758 | 80 | 49 | 2.0 | 5.0 | 0.00 | 0.00 | 0.00 | 86 | 1009.3 |
| 20260505183658 | 80 | 251 | 2.0 | 5.0 | 0.00 | 0.00 | 0.00 | 86 | 1009.3 |
| 20260505183559 | 80 | 180 | 2.0 | 5.0 | 0.00 | 0.00 | 0.00 | 86 | 1009.3 |
| 20260505183553 | 80 | 177 | 2.0 | 5.0 | 0.00 | 0.00 | 0.00 | 86 | 1009.3 |
| 20260505183457 | 80 | 332 | 1.0 | 5.0 | 0.00 | 0.00 | 0.00 | 86 | 1009.2 |
| 20260505183357 | 80 | 220 | 2.0 | 5.0 | 0.00 | 0.00 | 0.00 | 86 | 1009.2 |
| 20260505183257 | 80 | 304 | 2.0 | 5.0 | 0.00 | 0.00 | 0.00 | 85 | 1009.2 |
| 20260505183157 | 80 | 339 | 2.0 | 7.0 | 0.00 | 0.00 | 0.00 | 86 | 1009.2 |
| 20260505183059 | 80 | 321 | 2.0 | 7.0 | 0.00 | 0.00 | 0.00 | 86 | 1009.2 |
| 20260505183053 | 80 | 286 | 2.0 | 7.0 | 0.00 | 0.00 | 0.00 | 86 | 1009.2 |
| 20260505182958 | 80 | 239 | 2.0 | 7.0 | 0.00 | 0.00 | 0.00 | 86 | 1009.2 |
| 20260505182858 | 80 | 201 | 2.0 | 7.0 | 0.00 | 0.00 | 0.00 | 86 | 1009.2 |
| 20260505182757 | 80 | 181 | 2.0 | 7.0 | 0.00 | 0.00 | 0.00 | 86 | 1009.2 |
| 20260505182654 | 80 | 98 | 2.0 | 7.0 | 0.00 | 0.00 | 0.00 | 86 | 1009.2 |
| 20260505182554 | 80 | 170 | 2.0 | 7.0 | 0.00 | 0.00 | 0.00 | 86 | 1009.3 |
| 20260505182454 | 79 | 256 | 2.0 | 7.0 | 0.00 | 0.00 | 0.00 | 86 | 1009.3 |
| 20260505182354 | 79 | 217 | 2.0 | 7.0 | 0.00 | 0.00 | 0.00 | 86 | 1009.3 |
| 20260505182255 | 79 | 197 | 2.0 | 7.0 | 0.00 | 0.00 | 0.00 | 86 | 1009.3 |
| 20260505182155 | 79 | 27 | 2.0 | 7.0 | 0.00 | 0.00 | 0.00 | 86 | 1009.3 |
| 20260505182055 | 80 | 224 | 2.0 | 7.0 | 0.00 | 0.00 | 0.00 | 86 | 1009.4 |
| 20260505181955 | 80 | 183 | 2.0 | 7.0 | 0.00 | 0.00 | 0.00 | 86 | 1009.4 |
| 20260505181854 | 80 | 196 | 2.0 | 7.0 | 0.00 | 0.00 | 0.00 | 86 | 1009.4 |
| 20260505181752 | 80 | 137 | 2.0 | 7.0 | 0.00 | 0.00 | 0.00 | 86 | 1009.4 |
| 20260505181646 | 80 | 201 | 2.0 | 5.0 | 0.00 | 0.00 | 0.00 | 87 | 1009.4 |
| 20260505181550 | 80 | 238 | 2.0 | 7.0 | 0.00 | 0.00 | 0.00 | 86 | 1009.4 |
| 20260505181546 | 80 | 122 | 2.0 | 7.0 | 0.00 | 0.00 | 0.00 | 86 | 1009.4 |
| 20260505181446 | 80 | 215 | 2.0 | 7.0 | 0.00 | 0.00 | 0.00 | 86 | 1009.3 |
| 20260505181345 | 80 | 19 | 2.0 | 7.0 | 0.00 | 0.00 | 0.00 | 86 | 1009.3 |
| 20260505181310 | 80 | 86 | 2.0 | 7.0 | 0.00 | 0.00 | 0.00 | 86 | 1009.4 |
| 20260505181244 | 80 | 219 | 2.0 | 7.0 | 0.00 | 0.00 | 0.00 | 86 | 1009.3 |
| 20260505181155 | 80 | 154 | 2.0 | 7.0 | 0.00 | 0.00 | 0.00 | 86 | 1009.4 |
| 20260505181045 | 80 | 351 | 2.0 | 7.0 | 0.00 | 0.00 | 0.00 | 85 | 1009.4 |
| 20260505180943 | 80 | 176 | 2.0 | 7.0 | 0.00 | 0.00 | 0.00 | 85 | 1009.4 |
| 20260505180840 | 80 | 189 | 2.0 | 7.0 | 0.00 | 0.00 | 0.00 | 85 | 1009.4 |
| 20260505180736 | 80 | 20 | 2.0 | 7.0 | 0.00 | 0.00 | 0.00 | 85 | 1009.4 |
| 20260505180633 | 80 | 243 | 2.0 | 7.0 | 0.00 | 0.00 | 0.00 | 85 | 1009.4 |
| 20260505180547 | 80 | 145 | 2.0 | 4.0 | 0.00 | 0.00 | 0.00 | 85 | 1009.4 |
| 20260505180534 | 80 | 150 | 2.0 | 4.0 | 0.00 | 0.00 | 0.00 | 85 | 1009.4 |
| 20260505180434 | 80 | 100 | 2.0 | 4.0 | 0.00 | 0.00 | 0.00 | 85 | 1009.4 |
| 20260505180331 | 80 | 190 | 2.0 | 4.0 | 0.00 | 0.00 | 0.00 | 85 | 1009.4 |
| 20260505180231 | 80 | 0 | 2.0 | 4.0 | 0.00 | 0.00 | 0.00 | 85 | 1009.4 |
| 20260505180130 | 80 | 266 | 2.0 | 7.0 | 0.00 | 0.00 | 0.00 | 85 | 1009.4 |
| 20260505180048 | 80 | 121 | 2.0 | 7.0 | 0.00 | 0.00 | 0.00 | 85 | 1009.4 |
| 20260505180008 | 80 | 147 | 2.0 | 7.0 | 0.00 | 0.00 | 0.00 | 85 | 1009.4 |
| 20260505175912 | 80 | 213 | 2.0 | 7.0 | 0.00 | 0.00 | 0.00 | 85 | 1009.4 |
| 20260505175759 | 80 | 159 | 2.0 | 7.0 | 0.00 | 0.00 | 0.00 | 85 | 1009.4 |
| 20260505175642 | 80 | 115 | 2.0 | 7.0 | 0.00 | 0.00 | 0.00 | 86 | 1009.3 |
| 20260505175549 | 80 | 108 | 1.0 | 7.0 | 0.00 | 0.00 | 0.00 | 86 | 1009.4 |
| 20260505175538 | 80 | 159 | 1.0 | 7.0 | 0.00 | 0.00 | 0.00 | 86 | 1009.4 |
| 20260505175439 | 80 | 191 | 2.0 | 7.0 | 0.00 | 0.00 | 0.00 | 86 | 1009.4 |
| 20260505175309 | 80 | 93 | 2.0 | 7.0 | 0.00 | 0.00 | 0.00 | 86 | 1009.4 |
| 20260505175209 | 80 | 257 | 1.0 | 7.0 | 0.00 | 0.00 | 0.00 | 86 | 1009.4 |
| 20260505175115 | 80 | 226 | 1.0 | 5.0 | 0.00 | 0.00 | 0.00 | 86 | 1009.4 |
| 20260505175044 | 80 | 352 | 1.0 | 5.0 | 0.00 | 0.00 | 0.00 | 87 | 1009.4 |
| 20260505174950 | 80 | 239 | 1.0 | 5.0 | 0.00 | 0.00 | 0.00 | 87 | 1009.4 |
| 20260505174845 | 80 | 236 | 1.0 | 5.0 | 0.00 | 0.00 | 0.00 | 86 | 1009.4 |
| 20260505174745 | 80 | 208 | 1.0 | 5.0 | 0.00 | 0.00 | 0.00 | 86 | 1009.4 |
| 20260505174644 | 80 | 193 | 1.0 | 5.0 | 0.00 | 0.00 | 0.00 | 86 | 1009.4 |
| 20260505174543 | 80 | 273 | 1.0 | 5.0 | 0.00 | 0.00 | 0.00 | 86 | 1009.4 |
| 20260505174437 | 80 | 180 | 1.0 | 3.0 | 0.00 | 0.00 | 0.00 | 86 | 1009.4 |
| 20260505174337 | 80 | 115 | 1.0 | 4.0 | 0.00 | 0.00 | 0.00 | 86 | 1009.4 |
| 20260505174254 | 80 | 254 | 1.0 | 5.0 | 0.00 | 0.00 | 0.00 | 86 | 1009.5 |
| 20260505174236 | 80 | 166 | 1.0 | 4.0 | 0.00 | 0.00 | 0.00 | 86 | 1009.4 |
| 20260505174142 | 80 | 142 | 1.0 | 4.0 | 0.00 | 0.00 | 0.00 | 86 | 1009.5 |
| 20260505174031 | 80 | 0 | 1.0 | 5.0 | 0.00 | 0.00 | 0.00 | 86 | 1009.5 |
| 20260505173931 | 80 | 276 | 2.0 | 5.0 | 0.00 | 0.00 | 0.00 | 85 | 1009.5 |
| 20260505173831 | 80 | 259 | 2.0 | 5.0 | 0.00 | 0.00 | 0.00 | 85 | 1009.5 |
| 20260505173730 | 80 | 58 | 2.0 | 5.0 | 0.00 | 0.00 | 0.00 | 85 | 1009.5 |
| 20260505173629 | 80 | 197 | 2.0 | 6.0 | 0.00 | 0.00 | 0.00 | 84 | 1009.5 |
| 20260505173536 | 80 | 168 | 2.0 | 6.0 | 0.00 | 0.00 | 0.00 | 84 | 1009.5 |
| 20260505173529 | 80 | 233 | 2.0 | 6.0 | 0.00 | 0.00 | 0.00 | 84 | 1009.5 |
| 20260505173428 | 80 | 208 | 2.0 | 6.0 | 0.00 | 0.00 | 0.00 | 84 | 1009.5 |
| 20260505173328 | 80 | 181 | 2.0 | 6.0 | 0.00 | 0.00 | 0.00 | 84 | 1009.5 |
| 20260505173225 | 80 | 212 | 2.0 | 6.0 | 0.00 | 0.00 | 0.00 | 84 | 1009.5 |
| 20260505173122 | 80 | 57 | 2.0 | 6.0 | 0.00 | 0.00 | 0.00 | 84 | 1009.5 |
| 20260505173036 | 80 | 164 | 2.0 | 6.0 | 0.00 | 0.00 | 0.00 | 84 | 1009.5 |
| 20260505173022 | 80 | 103 | 2.0 | 6.0 | 0.00 | 0.00 | 0.00 | 84 | 1009.5 |
| 20260505172922 | 80 | 157 | 2.0 | 6.0 | 0.00 | 0.00 | 0.00 | 84 | 1009.5 |
| 20260505172822 | 80 | 79 | 2.0 | 6.0 | 0.00 | 0.00 | 0.00 | 84 | 1009.5 |
| 20260505172723 | 80 | 219 | 2.0 | 6.0 | 0.00 | 0.00 | 0.00 | 83 | 1009.5 |
| 20260505172623 | 80 | 192 | 2.0 | 6.0 | 0.00 | 0.00 | 0.00 | 84 | 1009.6 |
| 20260505172537 | 80 | 197 | 2.0 | 5.0 | 0.00 | 0.00 | 0.00 | 83 | 1009.6 |
| 20260505172523 | 80 | 127 | 2.0 | 5.0 | 0.00 | 0.00 | 0.00 | 83 | 1009.6 |
| 20260505172423 | 80 | 203 | 2.0 | 5.0 | 0.00 | 0.00 | 0.00 | 84 | 1009.6 |
| 20260505172320 | 80 | 277 | 1.0 | 4.0 | 0.00 | 0.00 | 0.00 | 84 | 1009.6 |
| 20260505172300 | 80 | 146 | 2.0 | 7.0 | 0.00 | 0.00 | 0.00 | 85 | 1009.6 |
| 20260505172214 | 80 | 255 | 1.0 | 7.0 | 0.00 | 0.00 | 0.00 | 84 | 1009.6 |
| 20260505172142 | 80 | 310 | 2.0 | 7.0 | 0.00 | 0.00 | 0.00 | 84 | 1009.6 |
| 20260505172013 | 80 | 245 | 2.0 | 7.0 | 0.00 | 0.00 | 0.00 | 85 | 1009.6 |
| 20260505171914 | 80 | 176 | 2.0 | 7.0 | 0.00 | 0.00 | 0.00 | 85 | 1009.6 |
| 20260505171811 | 80 | 318 | 2.0 | 7.0 | 0.00 | 0.00 | 0.00 | 85 | 1009.7 |
| 20260505171755 | 80 | 273 | 2.0 | 7.0 | 0.00 | 0.00 | 0.00 | 85 | 1009.7 |
| 20260505171711 | 80 | 266 | 2.0 | 7.0 | 0.00 | 0.00 | 0.00 | 85 | 1009.6 |
| 20260505171638 | 80 | 81 | 2.0 | 7.0 | 0.00 | 0.00 | 0.00 | 85 | 1009.7 |
| 20260505171511 | 80 | 200 | 2.0 | 7.0 | 0.00 | 0.00 | 0.00 | 85 | 1009.7 |
| 20260505171411 | 80 | 254 | 2.0 | 7.0 | 0.00 | 0.00 | 0.00 | 85 | 1009.7 |
| 20260505171311 | 80 | 243 | 2.0 | 7.0 | 0.00 | 0.00 | 0.00 | 84 | 1009.7 |
| 20260505171208 | 80 | 183 | 2.0 | 7.0 | 0.00 | 0.00 | 0.00 | 85 | 1009.8 |
| 20260505171108 | 80 | 32 | 2.0 | 6.0 | 0.00 | 0.00 | 0.00 | 84 | 1009.8 |
| 20260505171033 | 80 | 211 | 2.0 | 6.0 | 0.00 | 0.00 | 0.00 | 84 | 1009.8 |
| 20260505171001 | 80 | 212 | 2.0 | 6.0 | 0.00 | 0.00 | 0.00 | 84 | 1009.8 |
| 20260505170859 | 80 | 168 | 2.0 | 7.0 | 0.00 | 0.00 | 0.00 | 84 | 1009.8 |
| 20260505170758 | 80 | 230 | 2.0 | 7.0 | 0.00 | 0.00 | 0.00 | 84 | 1009.8 |
| 20260505170659 | 80 | 173 | 2.0 | 7.0 | 0.00 | 0.00 | 0.00 | 85 | 1009.8 |
| 20260505170559 | 80 | 221 | 2.0 | 7.0 | 0.00 | 0.00 | 0.00 | 84 | 1009.8 |
| 20260505170533 | 80 | 256 | 2.0 | 7.0 | 0.00 | 0.00 | 0.00 | 84 | 1009.8 |
| 20260505170456 | 80 | 252 | 2.0 | 7.0 | 0.00 | 0.00 | 0.00 | 84 | 1009.8 |
| 20260505170356 | 80 | 203 | 2.0 | 7.0 | 0.00 | 0.00 | 0.00 | 84 | 1009.8 |
| 20260505170256 | 80 | 107 | 2.0 | 7.0 | 0.00 | 0.00 | 0.00 | 84 | 1009.8 |
| 20260505170156 | 80 | 180 | 2.0 | 7.0 | 0.00 | 0.00 | 0.00 | 84 | 1009.7 |
| 20260505170053 | 80 | 213 | 2.0 | 7.0 | 0.00 | 0.00 | 0.00 | 84 | 1009.7 |
| 20260505170034 | 80 | 123 | 2.0 | 7.0 | 0.00 | 0.00 | 0.00 | 83 | 1009.6 |
| 20260505165950 | 80 | 136 | 2.0 | 7.0 | 0.00 | 0.00 | 0.00 | 83 | 1009.6 |
| 20260505165850 | 80 | 104 | 2.0 | 7.0 | 0.00 | 0.00 | 0.00 | 83 | 1009.6 |
| 20260505165750 | 80 | 176 | 2.0 | 7.0 | 0.00 | 0.00 | 0.00 | 83 | 1009.6 |
| 20260505165647 | 80 | 208 | 2.0 | 7.0 | 0.00 | 0.00 | 0.00 | 84 | 1009.7 |
| 20260505165545 | 80 | 213 | 2.0 | 7.0 | 0.00 | 0.00 | 0.00 | 83 | 1009.6 |
| 20260505165531 | 80 | 255 | 2.0 | 8.0 | 0.00 | 0.00 | 0.00 | 83 | 1009.6 |
| 20260505165444 | 80 | 239 | 2.0 | 8.0 | 0.00 | 0.00 | 0.00 | 83 | 1009.6 |
| 20260505165344 | 80 | 213 | 2.0 | 8.0 | 0.00 | 0.00 | 0.00 | 83 | 1009.6 |
| 20260505165235 | 80 | 204 | 2.0 | 8.0 | 0.00 | 0.00 | 0.00 | 83 | 1009.6 |
| 20260505165135 | 80 | 249 | 2.0 | 8.0 | 0.00 | 0.00 | 0.00 | 83 | 1009.5 |
| 20260505165027 | 80 | 193 | 2.0 | 8.0 | 0.00 | 0.00 | 0.00 | 83 | 1009.5 |
| 20260505164932 | 80 | 148 | 2.0 | 8.0 | 0.00 | 0.00 | 0.00 | 83 | 1009.5 |
| 20260505164832 | 80 | 98 | 2.0 | 8.0 | 0.00 | 0.00 | 0.00 | 82 | 1009.5 |
| 20260505164732 | 80 | 216 | 2.0 | 8.0 | 0.00 | 0.00 | 0.00 | 82 | 1009.5 |
| 20260505164633 | 80 | 207 | 2.0 | 8.0 | 0.00 | 0.00 | 0.00 | 82 | 1009.5 |
| 20260505164532 | 80 | 48 | 2.0 | 7.0 | 0.00 | 0.00 | 0.00 | 82 | 1009.6 |
| 20260505164525 | 80 | 155 | 2.0 | 7.0 | 0.00 | 0.00 | 0.00 | 82 | 1009.6 |
| 20260505164432 | 80 | 160 | 2.0 | 6.0 | 0.00 | 0.00 | 0.00 | 83 | 1009.6 |
| 20260505164332 | 80 | 144 | 2.0 | 6.0 | 0.00 | 0.00 | 0.00 | 83 | 1009.6 |
| 20260505164232 | 80 | 196 | 2.0 | 6.0 | 0.00 | 0.00 | 0.00 | 83 | 1009.6 |
| 20260505164132 | 80 | 247 | 2.0 | 6.0 | 0.00 | 0.00 | 0.00 | 83 | 1009.6 |
| 20260505164032 | 80 | 158 | 2.0 | 6.0 | 0.00 | 0.00 | 0.00 | 83 | 1009.6 |
| 20260505164025 | 80 | 197 | 2.0 | 6.0 | 0.00 | 0.00 | 0.00 | 83 | 1009.6 |
| 20260505163929 | 79 | 109 | 2.0 | 6.0 | 0.00 | 0.00 | 0.00 | 84 | 1009.6 |
| 20260505163829 | 79 | 73 | 2.0 | 7.0 | 0.00 | 0.00 | 0.00 | 84 | 1009.6 |
| 20260505163720 | 79 | 274 | 2.0 | 8.0 | 0.00 | 0.00 | 0.00 | 84 | 1009.6 |
| 20260505163620 | 79 | 195 | 3.0 | 8.0 | 0.00 | 0.00 | 0.00 | 84 | 1009.6 |
| 20260505163525 | 79 | 244 | 3.0 | 8.0 | 0.00 | 0.00 | 0.00 | 85 | 1009.6 |
| 20260505163520 | 79 | 233 | 3.0 | 8.0 | 0.00 | 0.00 | 0.00 | 85 | 1009.6 |
| 20260505163415 | 79 | 240 | 3.0 | 8.0 | 0.00 | 0.00 | 0.00 | 85 | 1009.6 |
| 20260505163311 | 79 | 212 | 3.0 | 8.0 | 0.00 | 0.00 | 0.00 | 85 | 1009.6 |
| 20260505163207 | 79 | 0 | 3.0 | 8.0 | 0.00 | 0.00 | 0.00 | 85 | 1009.6 |
| 20260505163109 | 79 | 279 | 3.0 | 8.0 | 0.00 | 0.00 | 0.00 | 84 | 1009.6 |
| 20260505163026 | 79 | 196 | 2.0 | 8.0 | 0.00 | 0.00 | 0.00 | 84 | 1009.7 |
| 20260505163009 | 79 | 187 | 2.0 | 8.0 | 0.00 | 0.00 | 0.00 | 84 | 1009.7 |
| 20260505162905 | 79 | 49 | 2.0 | 8.0 | 0.00 | 0.00 | 0.00 | 84 | 1009.7 |
| 20260505162805 | 79 | 77 | 2.0 | 8.0 | 0.00 | 0.00 | 0.00 | 84 | 1009.7 |
| 20260505162705 | 79 | 323 | 2.0 | 8.0 | 0.00 | 0.00 | 0.00 | 84 | 1009.6 |
| 20260505162606 | 79 | 81 | 2.0 | 6.0 | 0.00 | 0.00 | 0.00 | 84 | 1009.7 |
| 20260505162525 | 79 | 220 | 2.0 | 6.0 | 0.00 | 0.00 | 0.00 | 84 | 1009.7 |
| 20260505162505 | 79 | 319 | 2.0 | 6.0 | 0.00 | 0.00 | 0.00 | 84 | 1009.7 |
| 20260505162402 | 79 | 68 | 1.0 | 5.0 | 0.00 | 0.00 | 0.00 | 84 | 1009.6 |
| 20260505162306 | 79 | 193 | 1.0 | 5.0 | 0.00 | 0.00 | 0.00 | 85 | 1009.7 |
| 20260505162202 | 79 | 284 | 1.0 | 6.0 | 0.00 | 0.00 | 0.00 | 85 | 1009.6 |
| 20260505162100 | 79 | 310 | 2.0 | 6.0 | 0.00 | 0.00 | 0.00 | 85 | 1009.6 |
| 20260505162024 | 79 | 275 | 2.0 | 6.0 | 0.00 | 0.00 | 0.00 | 85 | 1009.6 |
| 20260505161959 | 79 | 351 | 2.0 | 6.0 | 0.00 | 0.00 | 0.00 | 85 | 1009.6 |
| 20260505161859 | 79 | 237 | 2.0 | 6.0 | 0.00 | 0.00 | 0.00 | 85 | 1009.6 |
| 20260505161759 | 79 | 275 | 2.0 | 6.0 | 0.00 | 0.00 | 0.00 | 85 | 1009.6 |
| 20260505161659 | 79 | 211 | 2.0 | 6.0 | 0.00 | 0.00 | 0.00 | 85 | 1009.6 |
| 20260505161600 | 79 | 275 | 2.0 | 6.0 | 0.00 | 0.00 | 0.00 | 85 | 1009.6 |
| 20260505161525 | 79 | 241 | 2.0 | 6.0 | 0.00 | 0.00 | 0.00 | 85 | 1009.6 |
| 20260505161459 | 79 | 260 | 2.0 | 6.0 | 0.00 | 0.00 | 0.00 | 85 | 1009.6 |
| 20260505161359 | 79 | 235 | 2.0 | 9.0 | 0.00 | 0.00 | 0.00 | 85 | 1009.6 |
| 20260505161259 | 79 | 208 | 2.0 | 9.0 | 0.00 | 0.00 | 0.00 | 84 | 1009.5 |
| 20260505161200 | 79 | 179 | 2.0 | 9.0 | 0.00 | 0.00 | 0.00 | 84 | 1009.5 |
| 20260505161057 | 79 | 217 | 2.0 | 9.0 | 0.00 | 0.00 | 0.00 | 84 | 1009.5 |
| 20260505161026 | 79 | 124 | 2.0 | 9.0 | 0.00 | 0.00 | 0.00 | 84 | 1009.5 |
| 20260505160957 | 79 | 232 | 2.0 | 9.0 | 0.00 | 0.00 | 0.00 | 84 | 1009.5 |
| 20260505160856 | 79 | 233 | 3.0 | 9.0 | 0.00 | 0.00 | 0.00 | 84 | 1009.4 |
| 20260505160756 | 79 | 179 | 2.0 | 9.0 | 0.00 | 0.00 | 0.00 | 85 | 1009.5 |
| 20260505160656 | 79 | 243 | 3.0 | 9.0 | 0.00 | 0.00 | 0.00 | 85 | 1009.5 |
| 20260505160556 | 79 | 115 | 2.0 | 9.0 | 0.00 | 0.00 | 0.00 | 85 | 1009.5 |
| 20260505160522 | 79 | 237 | 2.0 | 9.0 | 0.00 | 0.00 | 0.00 | 85 | 1009.4 |
| 20260505160458 | 79 | 169 | 2.0 | 9.0 | 0.00 | 0.00 | 0.00 | 85 | 1009.5 |
| 20260505160346 | 79 | 217 | 2.0 | 7.0 | 0.00 | 0.00 | 0.00 | 85 | 1009.4 |
| 20260505160246 | 79 | 185 | 2.0 | 8.0 | 0.00 | 0.00 | 0.00 | 84 | 1009.5 |
| 20260505160146 | 79 | 165 | 3.0 | 9.0 | 0.00 | 0.00 | 0.00 | 84 | 1009.5 |
| 20260505153318 | 78 | 101 | 2.0 | 7.0 | 0.00 | 0.00 | 0.00 | 85 | 1009.4 |
| 20260505153218 | 78 | 295 | 2.0 | 7.0 | 0.00 | 0.00 | 0.00 | 85 | 1009.4 |
| 20260505153118 | 78 | 207 | 2.0 | 7.0 | 0.00 | 0.00 | 0.00 | 85 | 1009.3 |
| 20260505153015 | 78 | 197 | 2.0 | 7.0 | 0.00 | 0.00 | 0.00 | 85 | 1009.3 |
| 20260505152915 | 78 | 238 | 2.0 | 6.0 | 0.00 | 0.00 | 0.00 | 85 | 1009.3 |
| 20260505152815 | 79 | 214 | 2.0 | 7.0 | 0.00 | 0.00 | 0.00 | 85 | 1009.3 |
| 20260505152715 | 79 | 169 | 2.0 | 7.0 | 0.00 | 0.00 | 0.00 | 85 | 1009.3 |
| 20260505152612 | 79 | 199 | 2.0 | 7.0 | 0.00 | 0.00 | 0.00 | 85 | 1009.3 |
| 20260505152516 | 79 | 188 | 2.0 | 7.0 | 0.00 | 0.00 | 0.00 | 85 | 1009.3 |
| 20260505152512 | 79 | 68 | 2.0 | 7.0 | 0.00 | 0.00 | 0.00 | 85 | 1009.3 |
| 20260505152409 | 79 | 349 | 2.0 | 7.0 | 0.00 | 0.00 | 0.00 | 84 | 1009.3 |
| 20260505152306 | 79 | 285 | 2.0 | 7.0 | 0.00 | 0.00 | 0.00 | 84 | 1009.3 |
| 20260505152203 | 79 | 288 | 2.0 | 7.0 | 0.00 | 0.00 | 0.00 | 84 | 1009.3 |
| 20260505152103 | 79 | 111 | 2.0 | 7.0 | 0.00 | 0.00 | 0.00 | 85 | 1009.2 |
| 20260505152013 | 79 | 302 | 2.0 | 7.0 | 0.00 | 0.00 | 0.00 | 84 | 1009.3 |
| 20260505152001 | 79 | 245 | 2.0 | 7.0 | 0.00 | 0.00 | 0.00 | 84 | 1009.3 |
| 20260505151901 | 79 | 144 | 2.0 | 7.0 | 0.00 | 0.00 | 0.00 | 85 | 1009.2 |
| 20260505151800 | 79 | 183 | 2.0 | 7.0 | 0.00 | 0.00 | 0.00 | 85 | 1009.3 |
| 20260505151741 | 79 | 273 | 2.0 | 9.0 | 0.00 | 0.00 | 0.00 | 84 | 1009.2 |
| 20260505151700 | 79 | 1 | 2.0 | 9.0 | 0.00 | 0.00 | 0.00 | 85 | 1009.3 |
| 20260505151619 | 79 | 175 | 2.0 | 9.0 | 0.00 | 0.00 | 0.00 | 84 | 1009.2 |
| 20260505151457 | 79 | 237 | 3.0 | 9.0 | 0.00 | 0.00 | 0.00 | 84 | 1009.2 |
| 20260505151354 | 79 | 193 | 3.0 | 9.0 | 0.00 | 0.00 | 0.00 | 83 | 1009.2 |
| 20260505151251 | 79 | 0 | 3.0 | 9.0 | 0.00 | 0.00 | 0.00 | 83 | 1009.2 |
| 20260505151152 | 79 | 272 | 3.0 | 9.0 | 0.00 | 0.00 | 0.00 | 84 | 1009.2 |
| 20260505151051 | 79 | 284 | 3.0 | 9.0 | 0.00 | 0.00 | 0.00 | 84 | 1009.1 |
| 20260505151011 | 79 | 237 | 2.0 | 9.0 | 0.00 | 0.00 | 0.00 | 84 | 1009.2 |
| 20260505150952 | 79 | 209 | 2.0 | 9.0 | 0.00 | 0.00 | 0.00 | 84 | 1009.2 |
| 20260505150848 | 79 | 121 | 2.0 | 9.0 | 0.00 | 0.00 | 0.00 | 84 | 1009.1 |
| 20260505150749 | 79 | 314 | 2.0 | 9.0 | 0.00 | 0.00 | 0.00 | 83 | 1009.0 |
| 20260505150648 | 79 | 174 | 2.0 | 9.0 | 0.00 | 0.00 | 0.00 | 83 | 1009.0 |
| 20260505150546 | 79 | 189 | 2.0 | 6.0 | 0.00 | 0.00 | 0.00 | 83 | 1009.0 |
| 20260505150511 | 79 | 246 | 2.0 | 6.0 | 0.00 | 0.00 | 0.00 | 83 | 1009.0 |
| 20260505150446 | 79 | 167 | 2.0 | 6.0 | 0.00 | 0.00 | 0.00 | 83 | 1009.1 |
| 20260505150346 | 79 | 95 | 2.0 | 6.0 | 0.00 | 0.00 | 0.00 | 83 | 1009.1 |
| 20260505150245 | 79 | 52 | 2.0 | 6.0 | 0.00 | 0.00 | 0.00 | 83 | 1009.1 |
| 20260505150142 | 79 | 50 | 2.0 | 6.0 | 0.00 | 0.00 | 0.00 | 83 | 1009.1 |
| 20260505140604 | 76 | 147 | 2.0 | 6.0 | 0.00 | 0.00 | 0.00 | 90 | 1009.3 |
| 20260505140504 | 76 | 133 | 2.0 | 6.0 | 0.00 | 0.00 | 0.00 | 90 | 1009.3 |
| 20260505140433 | 76 | 212 | 2.0 | 6.0 | 0.00 | 0.00 | 0.00 | 90 | 1009.3 |
| 20260505140405 | 76 | 175 | 2.0 | 6.0 | 0.00 | 0.00 | 0.00 | 90 | 1009.3 |
| 20260505140304 | 76 | 294 | 2.0 | 6.0 | 0.00 | 0.00 | 0.00 | 90 | 1009.3 |
| 20260505140204 | 76 | 231 | 2.0 | 6.0 | 0.00 | 0.00 | 0.00 | 90 | 1009.3 |
| 20260505130220 | 75 | 214 | 2.0 | 4.0 | 0.00 | 0.00 | 0.00 | 91 | 1009.0 |
| 20260505130120 | 75 | 179 | 2.0 | 5.0 | 0.00 | 0.00 | 0.00 | 91 | 1009.1 |
| 20260505124950 | 74 | 191 | 2.0 | 5.0 | 0.00 | 0.00 | 0.00 | 92 | 1009.0 |
| 20260505124851 | 74 | 175 | 2.0 | 5.0 | 0.00 | 0.00 | 0.00 | 92 | 1009.0 |
| 20260505124833 | 74 | 136 | 2.0 | 5.0 | 0.00 | 0.00 | 0.00 | 92 | 1008.9 |
| 20260505124747 | 74 | 168 | 2.0 | 5.0 | 0.00 | 0.00 | 0.00 | 92 | 1008.9 |
| 20260505124650 | 74 | 264 | 2.0 | 5.0 | 0.00 | 0.00 | 0.00 | 92 | 1008.9 |
| 20260505124535 | 74 | 175 | 2.0 | 5.0 | 0.00 | 0.00 | 0.00 | 92 | 1008.9 |
| 20260505124435 | 74 | 205 | 2.0 | 5.0 | 0.00 | 0.00 | 0.00 | 92 | 1008.8 |
| 20260505124336 | 74 | 219 | 2.0 | 5.0 | 0.00 | 0.00 | 0.00 | 92 | 1008.8 |
| 20260505124235 | 74 | 160 | 2.0 | 4.0 | 0.00 | 0.00 | 0.00 | 92 | 1008.8 |
| 20260505124135 | 74 | 237 | 2.0 | 4.0 | 0.00 | 0.00 | 0.00 | 92 | 1008.8 |
| 20260505124035 | 74 | 174 | 2.0 | 4.0 | 0.00 | 0.00 | 0.00 | 92 | 1008.8 |
| 20260505123935 | 74 | 187 | 1.0 | 3.0 | 0.00 | 0.00 | 0.00 | 93 | 1008.8 |
| 20260505123836 | 73 | 121 | 1.0 | 3.0 | 0.00 | 0.00 | 0.00 | 93 | 1008.8 |
| 20260505123735 | 73 | 293 | 1.0 | 3.0 | 0.00 | 0.00 | 0.00 | 93 | 1008.8 |
| 20260505123635 | 73 | 174 | 1.0 | 3.0 | 0.00 | 0.00 | 0.00 | 93 | 1008.8 |
| 20260505123535 | 73 | 118 | 1.0 | 3.0 | 0.00 | 0.00 | 0.00 | 93 | 1008.8 |
| 20260505123435 | 73 | 124 | 1.0 | 2.0 | 0.00 | 0.00 | 0.00 | 93 | 1008.8 |
| 20260505123336 | 73 | 108 | 1.0 | 2.0 | 0.00 | 0.00 | 0.00 | 93 | 1008.8 |
| 20260505123236 | 73 | 255 | 1.0 | 3.0 | 0.00 | 0.00 | 0.00 | 93 | 1008.8 |
| 20260505123136 | 73 | 173 | 1.0 | 3.0 | 0.00 | 0.00 | 0.00 | 93 | 1008.7 |
| 20260505123035 | 73 | 81 | 1.0 | 3.0 | 0.00 | 0.00 | 0.00 | 93 | 1008.7 |
| 20260505122935 | 73 | 186 | 1.0 | 3.0 | 0.00 | 0.00 | 0.00 | 93 | 1008.6 |
| 20260505122836 | 73 | 358 | 1.0 | 3.0 | 0.00 | 0.00 | 0.00 | 93 | 1008.6 |
| 20260505122736 | 73 | 153 | 1.0 | 4.0 | 0.00 | 0.00 | 0.00 | 92 | 1008.7 |
| 20260505122636 | 73 | 238 | 1.0 | 4.0 | 0.00 | 0.00 | 0.00 | 92 | 1008.7 |
| 20260505122558 | 73 | 120 | 1.0 | 4.0 | 0.00 | 0.00 | 0.00 | 92 | 1008.6 |
| 20260505122536 | 73 | 107 | 1.0 | 4.0 | 0.00 | 0.00 | 0.00 | 92 | 1008.7 |
| 20260505122446 | 73 | 175 | 1.0 | 4.0 | 0.00 | 0.00 | 0.00 | 92 | 1008.6 |
| 20260505122440 | 73 | 120 | 1.0 | 4.0 | 0.00 | 0.00 | 0.00 | 92 | 1008.6 |
| 20260505122221 | 73 | 148 | 1.0 | 4.0 | 0.00 | 0.00 | 0.00 | 92 | 1008.6 |
| 20260505122120 | 73 | 57 | 1.0 | 4.0 | 0.00 | 0.00 | 0.00 | 92 | 1008.7 |
| 20260505122006 | 73 | 120 | 1.0 | 4.0 | 0.00 | 0.00 | 0.00 | 92 | 1008.8 |
| 20260505121906 | 73 | 186 | 1.0 | 4.0 | 0.00 | 0.00 | 0.00 | 92 | 1008.8 |
| 20260505121820 | 73 | 126 | 1.0 | 4.0 | 0.00 | 0.00 | 0.00 | 92 | 1008.8 |
| 20260505121807 | 73 | 80 | 1.0 | 4.0 | 0.00 | 0.00 | 0.00 | 92 | 1008.8 |
| 20260505121705 | 73 | 257 | 1.0 | 3.0 | 0.00 | 0.00 | 0.00 | 92 | 1008.8 |
| 20260505121605 | 73 | 156 | 1.0 | 3.0 | 0.00 | 0.00 | 0.00 | 92 | 1008.8 |
| 20260505121505 | 73 | 82 | 1.0 | 3.0 | 0.00 | 0.00 | 0.00 | 92 | 1008.8 |
| 20260505121349 | 73 | 13 | 1.0 | 2.0 | 0.00 | 0.00 | 0.00 | 92 | 1008.7 |
| 20260505121304 | 73 | 13 | 1.0 | 3.0 | 0.00 | 0.00 | 0.00 | 92 | 1008.7 |
| 20260505121236 | 73 | 324 | 1.0 | 3.0 | 0.00 | 0.00 | 0.00 | 92 | 1008.7 |
| 20260505121135 | 73 | 144 | 1.0 | 3.0 | 0.00 | 0.00 | 0.00 | 92 | 1008.8 |
| 20260505120950 | 73 | 91 | 1.0 | 3.0 | 0.00 | 0.00 | 0.00 | 92 | 1008.8 |
| 20260505120851 | 73 | 52 | 1.0 | 3.0 | 0.00 | 0.00 | 0.00 | 92 | 1008.8 |
| 20260505120805 | 73 | 110 | 2.0 | 3.0 | 0.00 | 0.00 | 0.00 | 92 | 1008.9 |
| 20260505120751 | 73 | 157 | 2.0 | 3.0 | 0.00 | 0.00 | 0.00 | 92 | 1008.9 |
| 20260505120649 | 73 | 80 | 2.0 | 3.0 | 0.00 | 0.00 | 0.00 | 92 | 1008.9 |
| 20260505120550 | 73 | 220 | 2.0 | 3.0 | 0.00 | 0.00 | 0.00 | 92 | 1008.8 |
| 20260505120527 | 73 | 162 | 2.0 | 3.0 | 0.00 | 0.00 | 0.00 | 92 | 1008.8 |
| 20260505120449 | 73 | 151 | 2.0 | 3.0 | 0.00 | 0.00 | 0.00 | 92 | 1008.8 |
| 20260505120411 | 73 | 76 | 2.0 | 3.0 | 0.00 | 0.00 | 0.00 | 92 | 1008.8 |
| 20260505120236 | 73 | 178 | 2.0 | 3.0 | 0.00 | 0.00 | 0.00 | 92 | 1008.8 |
| 20260505120135 | 73 | 106 | 2.0 | 3.0 | 0.00 | 0.00 | 0.00 | 92 | 1008.8 |
| 20260505120036 | 73 | 103 | 2.0 | 3.0 | 0.00 | 0.00 | 0.00 | 92 | 1008.8 |
| 20260505120028 | 73 | 226 | 2.0 | 3.0 | 0.00 | 0.00 | 0.00 | 92 | 1008.8 |
| 20260505115936 | 73 | 189 | 2.0 | 3.0 | 0.00 | 0.00 | 0.00 | 92 | 1008.8 |
| 20260505115911 | 73 | 179 | 2.0 | 3.0 | 0.00 | 0.00 | 0.00 | 92 | 1008.8 |
| 20260505115721 | 73 | 139 | 2.0 | 3.0 | 0.00 | 0.00 | 0.00 | 92 | 1008.8 |
| 20260505115621 | 73 | 113 | 2.0 | 3.0 | 0.00 | 0.00 | 0.00 | 92 | 1008.8 |
| 20260505115522 | 73 | 189 | 2.0 | 3.0 | 0.00 | 0.00 | 0.00 | 92 | 1008.7 |
| 20260505115406 | 73 | 151 | 2.0 | 3.0 | 0.00 | 0.00 | 0.00 | 92 | 1008.7 |
| 20260505115306 | 73 | 207 | 2.0 | 3.0 | 0.00 | 0.00 | 0.00 | 92 | 1008.7 |
| 20260505115150 | 73 | 85 | 1.0 | 3.0 | 0.00 | 0.00 | 0.00 | 92 | 1008.7 |
| 20260505115050 | 73 | 123 | 1.0 | 3.0 | 0.00 | 0.00 | 0.00 | 92 | 1008.7 |
| 20260505114950 | 73 | 214 | 1.0 | 3.0 | 0.00 | 0.00 | 0.00 | 92 | 1008.6 |
| 20260505114836 | 73 | 209 | 2.0 | 4.0 | 0.00 | 0.00 | 0.00 | 92 | 1008.6 |
| 20260505114750 | 73 | 33 | 2.0 | 4.0 | 0.00 | 0.00 | 0.00 | 92 | 1008.6 |
| 20260505114722 | 73 | 270 | 2.0 | 4.0 | 0.00 | 0.00 | 0.00 | 93 | 1008.6 |
| 20260505114621 | 73 | 153 | 1.0 | 4.0 | 0.00 | 0.00 | 0.00 | 93 | 1008.6 |
| 20260505114521 | 73 | 202 | 1.0 | 4.0 | 0.00 | 0.00 | 0.00 | 93 | 1008.6 |
| 20260505114421 | 73 | 88 | 2.0 | 4.0 | 0.00 | 0.00 | 0.00 | 93 | 1008.6 |
| 20260505114321 | 73 | 105 | 2.0 | 4.0 | 0.00 | 0.00 | 0.00 | 93 | 1008.6 |
| 20260505114250 | 73 | 211 | 2.0 | 4.0 | 0.00 | 0.00 | 0.00 | 93 | 1008.6 |
| 20260505114220 | 73 | 330 | 2.0 | 4.0 | 0.00 | 0.00 | 0.00 | 93 | 1008.6 |
| 20260505114122 | 73 | 115 | 2.0 | 4.0 | 0.00 | 0.00 | 0.00 | 93 | 1008.7 |
| 20260505114021 | 73 | 203 | 2.0 | 4.0 | 0.00 | 0.00 | 0.00 | 93 | 1008.7 |
| 20260505113921 | 73 | 158 | 2.0 | 4.0 | 0.00 | 0.00 | 0.00 | 93 | 1008.7 |
| 20260505113807 | 73 | 228 | 2.0 | 4.0 | 0.00 | 0.00 | 0.00 | 93 | 1008.7 |
| 20260505113750 | 73 | 118 | 2.0 | 4.0 | 0.00 | 0.00 | 0.00 | 93 | 1008.7 |
| 20260505113706 | 73 | 66 | 2.0 | 4.0 | 0.00 | 0.00 | 0.00 | 93 | 1008.6 |
| 20260505113606 | 73 | 121 | 2.0 | 4.0 | 0.00 | 0.00 | 0.00 | 93 | 1008.6 |
| 20260505113506 | 73 | 115 | 2.0 | 4.0 | 0.00 | 0.00 | 0.00 | 93 | 1008.6 |
| 20260505113406 | 73 | 176 | 1.0 | 4.0 | 0.00 | 0.00 | 0.00 | 93 | 1008.5 |
| 20260505113306 | 73 | 106 | 1.0 | 2.0 | 0.00 | 0.00 | 0.00 | 93 | 1008.5 |
| 20260505113250 | 73 | 137 | 1.0 | 2.0 | 0.00 | 0.00 | 0.00 | 93 | 1008.5 |
| 20260505113206 | 73 | 110 | 1.0 | 2.0 | 0.00 | 0.00 | 0.00 | 93 | 1008.5 |
| 20260505113051 | 73 | 122 | 1.0 | 2.0 | 0.00 | 0.00 | 0.00 | 93 | 1008.5 |
| 20260505112950 | 73 | 183 | 1.0 | 3.0 | 0.00 | 0.00 | 0.00 | 93 | 1008.6 |
| 20260505112850 | 73 | 86 | 1.0 | 3.0 | 0.00 | 0.00 | 0.00 | 93 | 1008.7 |
| 20260505112750 | 73 | 222 | 1.0 | 3.0 | 0.00 | 0.00 | 0.00 | 93 | 1008.7 |
| 20260505112650 | 73 | 190 | 1.0 | 3.0 | 0.00 | 0.00 | 0.00 | 93 | 1008.8 |
| 20260505112549 | 73 | 0 | 1.0 | 3.0 | 0.00 | 0.00 | 0.00 | 93 | 1008.8 |
| 20260505112437 | 73 | 144 | 1.0 | 3.0 | 0.00 | 0.00 | 0.00 | 93 | 1008.8 |
| 20260505112306 | 73 | 267 | 1.0 | 3.0 | 0.00 | 0.00 | 0.00 | 93 | 1008.7 |
| 20260505112249 | 73 | 175 | 1.0 | 3.0 | 0.00 | 0.00 | 0.00 | 93 | 1008.7 |
| 20260505112206 | 73 | 136 | 1.0 | 3.0 | 0.00 | 0.00 | 0.00 | 93 | 1008.7 |
| 20260505112052 | 73 | 207 | 1.0 | 3.0 | 0.00 | 0.00 | 0.00 | 93 | 1008.7 |
| 20260505111951 | 73 | 177 | 1.0 | 2.0 | 0.00 | 0.00 | 0.00 | 92 | 1008.7 |
| 20260505111850 | 73 | 128 | 1.0 | 2.0 | 0.00 | 0.00 | 0.00 | 93 | 1008.8 |
| 20260505111750 | 73 | 232 | 1.0 | 2.0 | 0.00 | 0.00 | 0.00 | 92 | 1008.9 |
| 20260505111650 | 73 | 206 | 1.0 | 2.0 | 0.00 | 0.00 | 0.00 | 93 | 1008.9 |
| 20260505111522 | 73 | 258 | 1.0 | 3.0 | 0.00 | 0.00 | 0.00 | 92 | 1008.9 |
| 20260505111421 | 73 | 0 | 1.0 | 3.0 | 0.00 | 0.00 | 0.00 | 92 | 1009.0 |
| 20260505111321 | 73 | 261 | 1.0 | 3.0 | 0.00 | 0.00 | 0.00 | 92 | 1009.0 |
| 20260505111249 | 73 | 261 | 1.0 | 3.0 | 0.00 | 0.00 | 0.00 | 92 | 1008.9 |
| 20260505111221 | 73 | 231 | 1.0 | 3.0 | 0.00 | 0.00 | 0.00 | 92 | 1008.9 |
| 20260505111122 | 73 | 98 | 1.0 | 3.0 | 0.00 | 0.00 | 0.00 | 92 | 1008.9 |
| 20260505111022 | 73 | 156 | 1.0 | 3.0 | 0.00 | 0.00 | 0.00 | 92 | 1008.9 |
| 20260505110921 | 73 | 203 | 1.0 | 3.0 | 0.00 | 0.00 | 0.00 | 92 | 1008.9 |
| 20260505110822 | 73 | 198 | 1.0 | 3.0 | 0.00 | 0.00 | 0.00 | 92 | 1008.9 |
| 20260505110749 | 73 | 55 | 1.0 | 3.0 | 0.00 | 0.00 | 0.00 | 93 | 1008.9 |
| 20260505110721 | 73 | 103 | 1.0 | 3.0 | 0.00 | 0.00 | 0.00 | 93 | 1008.9 |
| 20260505110621 | 73 | 56 | 1.0 | 3.0 | 0.00 | 0.00 | 0.00 | 93 | 1008.9 |
| 20260505110522 | 73 | 221 | 1.0 | 3.0 | 0.00 | 0.00 | 0.00 | 93 | 1008.9 |
| 20260505110455 | 73 | 76 | 1.0 | 3.0 | 0.00 | 0.00 | 0.00 | 92 | 1008.9 |
| 20260505110422 | 73 | 174 | 1.0 | 3.0 | 0.00 | 0.00 | 0.00 | 93 | 1008.9 |
| 20260505110341 | 73 | 192 | 1.0 | 3.0 | 0.00 | 0.00 | 0.00 | 93 | 1008.9 |
| 20260505110207 | 73 | 197 | 1.0 | 3.0 | 0.00 | 0.00 | 0.00 | 92 | 1008.9 |
| 20260505102208 | 73 | 155 | 1.0 | 5.0 | 0.00 | 0.00 | 0.00 | 92 | 1008.9 |
| 20260505102151 | 73 | 202 | 1.0 | 5.0 | 0.00 | 0.00 | 0.00 | 92 | 1008.9 |
| 20260505102108 | 73 | 201 | 1.0 | 5.0 | 0.00 | 0.00 | 0.00 | 91 | 1008.9 |
| 20260505102007 | 73 | 199 | 1.0 | 5.0 | 0.00 | 0.00 | 0.00 | 91 | 1008.9 |
| 20260505101907 | 73 | 210 | 1.0 | 5.0 | 0.00 | 0.00 | 0.00 | 91 | 1008.9 |
| 20260505101758 | 73 | 193 | 1.0 | 5.0 | 0.00 | 0.00 | 0.00 | 91 | 1008.8 |
| 20260505101651 | 73 | 338 | 1.0 | 5.0 | 0.00 | 0.00 | 0.00 | 91 | 1008.8 |
| 20260505101632 | 73 | 160 | 1.0 | 2.0 | 0.00 | 0.00 | 0.00 | 91 | 1008.6 |
| 20260505101559 | 73 | 197 | 1.0 | 5.0 | 0.00 | 0.00 | 0.00 | 91 | 1008.8 |
| 20260505101516 | 73 | 85 | 1.0 | 5.0 | 0.00 | 0.00 | 0.00 | 91 | 1008.8 |
| 20260505101351 | 73 | 168 | 1.0 | 5.0 | 0.00 | 0.00 | 0.00 | 92 | 1008.7 |
| 20260505101301 | 73 | 187 | 1.0 | 2.0 | 0.00 | 0.00 | 0.00 | 92 | 1008.7 |
| 20260505101256 | 73 | 204 | 1.0 | 2.0 | 0.00 | 0.00 | 0.00 | 91 | 1008.6 |
| 20260505101053 | 73 | 176 | 1.0 | 3.0 | 0.00 | 0.00 | 0.00 | 91 | 1008.6 |
| 20260505100953 | 73 | 164 | 1.0 | 3.0 | 0.00 | 0.00 | 0.00 | 91 | 1008.5 |
| 20260505100852 | 73 | 72 | 1.0 | 3.0 | 0.00 | 0.00 | 0.00 | 91 | 1008.5 |
| 20260505100752 | 73 | 91 | 1.0 | 3.0 | 0.00 | 0.00 | 0.00 | 91 | 1008.5 |
| 20260505100650 | 73 | 212 | 1.0 | 3.0 | 0.00 | 0.00 | 0.00 | 91 | 1008.6 |
| 20260505100553 | 73 | 196 | 1.0 | 3.0 | 0.00 | 0.00 | 0.00 | 91 | 1008.6 |
| 20260505100452 | 73 | 180 | 1.0 | 3.0 | 0.00 | 0.00 | 0.00 | 91 | 1008.6 |
| 20260505100351 | 73 | 100 | 1.0 | 3.0 | 0.00 | 0.00 | 0.00 | 91 | 1008.6 |
| 20260505100251 | 73 | 84 | 1.0 | 3.0 | 0.00 | 0.00 | 0.00 | 91 | 1008.6 |
| 20260505100151 | 73 | 127 | 1.0 | 3.0 | 0.00 | 0.00 | 0.00 | 91 | 1008.6 |
| 20260505100052 | 73 | 219 | 1.0 | 3.0 | 0.00 | 0.00 | 0.00 | 91 | 1008.6 |
| 20260505095951 | 73 | 190 | 1.0 | 3.0 | 0.00 | 0.00 | 0.00 | 91 | 1008.6 |
| 20260505095900 | 73 | 89 | 2.0 | 4.0 | 0.00 | 0.00 | 0.00 | 91 | 1008.6 |
| 20260505095851 | 73 | 214 | 1.0 | 4.0 | 0.00 | 0.00 | 0.00 | 91 | 1008.6 |
| 20260505095751 | 73 | 205 | 2.0 | 4.0 | 0.00 | 0.00 | 0.00 | 91 | 1008.6 |
| 20260505095742 | 73 | 89 | 2.0 | 4.0 | 0.00 | 0.00 | 0.00 | 91 | 1008.6 |
| 20260505095508 | 73 | 146 | 2.0 | 4.0 | 0.00 | 0.00 | 0.00 | 91 | 1008.5 |
| 20260505095353 | 73 | 228 | 1.0 | 4.0 | 0.00 | 0.00 | 0.00 | 91 | 1008.5 |
| 20260505095252 | 73 | 173 | 2.0 | 4.0 | 0.00 | 0.00 | 0.00 | 91 | 1008.5 |
| 20260505095151 | 73 | 198 | 2.0 | 4.0 | 0.00 | 0.00 | 0.00 | 91 | 1008.6 |
| 20260505095122 | 73 | 148 | 2.0 | 4.0 | 0.00 | 0.00 | 0.00 | 91 | 1008.6 |
| 20260505095051 | 73 | 181 | 1.0 | 4.0 | 0.00 | 0.00 | 0.00 | 91 | 1008.6 |
| 20260505094951 | 73 | 192 | 1.0 | 4.0 | 0.00 | 0.00 | 0.00 | 91 | 1008.7 |
| 20260505094851 | 73 | 246 | 1.0 | 2.0 | 0.00 | 0.00 | 0.00 | 91 | 1008.8 |
| 20260505094752 | 73 | 195 | 1.0 | 2.0 | 0.00 | 0.00 | 0.00 | 91 | 1008.8 |
| 20260505094638 | 73 | 175 | 1.0 | 2.0 | 0.00 | 0.00 | 0.00 | 91 | 1008.8 |
| 20260505094622 | 73 | 176 | 1.0 | 2.0 | 0.00 | 0.00 | 0.00 | 91 | 1008.8 |
| 20260505094523 | 73 | 188 | 1.0 | 2.0 | 0.00 | 0.00 | 0.00 | 91 | 1008.9 |
| 20260505094422 | 73 | 152 | 1.0 | 2.0 | 0.00 | 0.00 | 0.00 | 91 | 1008.8 |
| 20260505094308 | 73 | 164 | 1.0 | 2.0 | 0.00 | 0.00 | 0.00 | 91 | 1008.8 |
| 20260505094208 | 73 | 121 | 1.0 | 2.0 | 0.00 | 0.00 | 0.00 | 91 | 1008.8 |
| 20260505094108 | 73 | 169 | 1.0 | 2.0 | 0.00 | 0.00 | 0.00 | 91 | 1008.8 |
| 20260505093951 | 73 | 202 | 1.0 | 2.0 | 0.00 | 0.00 | 0.00 | 91 | 1008.9 |
| 20260505093837 | 73 | 202 | 1.0 | 2.0 | 0.00 | 0.00 | 0.00 | 91 | 1008.9 |
| 20260505093723 | 73 | 154 | 1.0 | 2.0 | 0.00 | 0.00 | 0.00 | 91 | 1008.9 |
| 20260505093607 | 73 | 212 | 1.0 | 2.0 | 0.00 | 0.00 | 0.00 | 91 | 1008.9 |
| 20260505093550 | 73 | 111 | 1.0 | 2.0 | 0.00 | 0.00 | 0.00 | 91 | 1009.0 |
| 20260505093454 | 73 | 211 | 1.0 | 2.0 | 0.00 | 0.00 | 0.00 | 91 | 1009.0 |
| 20260505093352 | 73 | 211 | 1.0 | 2.0 | 0.00 | 0.00 | 0.00 | 91 | 1009.0 |
| 20260505093238 | 73 | 183 | 1.0 | 2.0 | 0.00 | 0.00 | 0.00 | 91 | 1009.0 |
| 20260505093139 | 73 | 109 | 1.0 | 3.0 | 0.00 | 0.00 | 0.00 | 91 | 1009.0 |
| 20260505093038 | 73 | 179 | 1.0 | 3.0 | 0.00 | 0.00 | 0.00 | 91 | 1009.0 |
| 20260505092923 | 73 | 201 | 1.0 | 3.0 | 0.00 | 0.00 | 0.00 | 91 | 1009.0 |
| 20260505092751 | 73 | 157 | 1.0 | 3.0 | 0.00 | 0.00 | 0.00 | 91 | 1009.0 |
| 20260505092639 | 73 | 157 | 1.0 | 3.0 | 0.00 | 0.00 | 0.00 | 91 | 1009.0 |
| 20260505092538 | 72 | 196 | 1.0 | 3.0 | 0.00 | 0.00 | 0.00 | 91 | 1009.0 |
| 20260505092438 | 72 | 138 | 1.0 | 3.0 | 0.00 | 0.00 | 0.00 | 91 | 1009.0 |
| 20260505092338 | 72 | 159 | 1.0 | 3.0 | 0.00 | 0.00 | 0.00 | 91 | 1008.9 |
| 20260505092238 | 72 | 201 | 1.0 | 3.0 | 0.00 | 0.00 | 0.00 | 91 | 1008.9 |
| 20260505092139 | 72 | 73 | 1.0 | 3.0 | 0.00 | 0.00 | 0.00 | 91 | 1008.9 |
| 20260505092023 | 72 | 216 | 1.0 | 3.0 | 0.00 | 0.00 | 0.00 | 91 | 1008.8 |
| 20260505091908 | 72 | 43 | 1.0 | 3.0 | 0.00 | 0.00 | 0.00 | 91 | 1008.8 |
| 20260505091808 | 72 | 356 | 1.0 | 3.0 | 0.00 | 0.00 | 0.00 | 91 | 1008.8 |
| 20260505091654 | 72 | 162 | 1.0 | 3.0 | 0.00 | 0.00 | 0.00 | 91 | 1008.8 |
| 20260505091554 | 72 | 102 | 1.0 | 3.0 | 0.00 | 0.00 | 0.00 | 91 | 1008.8 |
| 20260505091507 | 72 | 209 | 1.0 | 3.0 | 0.00 | 0.00 | 0.00 | 91 | 1008.8 |
| 20260505091457 | 72 | 96 | 1.0 | 2.0 | 0.00 | 0.00 | 0.00 | 91 | 1008.9 |
| 20260505091453 | 72 | 221 | 1.0 | 3.0 | 0.00 | 0.00 | 0.00 | 91 | 1008.8 |
| 20260505091353 | 72 | 217 | 1.0 | 3.0 | 0.00 | 0.00 | 0.00 | 91 | 1008.9 |
| 20260505091337 | 72 | 59 | 1.0 | 2.0 | 0.00 | 0.00 | 0.00 | 91 | 1008.9 |
| 20260505091153 | 72 | 285 | 1.0 | 2.0 | 0.00 | 0.00 | 0.00 | 91 | 1008.9 |
| 20260505091112 | 72 | 86 | 1.0 | 2.0 | 0.00 | 0.00 | 0.00 | 91 | 1008.9 |
| 20260505090953 | 72 | 229 | 1.0 | 2.0 | 0.00 | 0.00 | 0.00 | 91 | 1008.9 |
| 20260505090854 | 72 | 178 | 1.0 | 3.0 | 0.00 | 0.00 | 0.00 | 91 | 1008.9 |
| 20260505090754 | 72 | 197 | 1.0 | 3.0 | 0.00 | 0.00 | 0.00 | 91 | 1008.9 |
| 20260505090653 | 72 | 121 | 1.0 | 3.0 | 0.00 | 0.00 | 0.00 | 91 | 1008.9 |
| 20260505090552 | 72 | 76 | 1.0 | 3.0 | 0.00 | 0.00 | 0.00 | 91 | 1008.9 |
| 20260505090507 | 72 | 99 | 1.0 | 3.0 | 0.00 | 0.00 | 0.00 | 91 | 1008.9 |
| 20260505090438 | 72 | 176 | 1.0 | 3.0 | 0.00 | 0.00 | 0.00 | 91 | 1009.0 |
| 20260505090339 | 72 | 92 | 1.0 | 3.0 | 0.00 | 0.00 | 0.00 | 91 | 1009.0 |
| 20260505090238 | 72 | 189 | 1.0 | 3.0 | 0.00 | 0.00 | 0.00 | 91 | 1009.0 |
| 20260505090138 | 72 | 217 | 1.0 | 3.0 | 0.00 | 0.00 | 0.00 | 91 | 1009.0 |
| 20260505090038 | 72 | 171 | 1.0 | 3.0 | 0.00 | 0.00 | 0.00 | 91 | 1008.9 |
| 20260505090007 | 72 | 166 | 1.0 | 3.0 | 0.00 | 0.00 | 0.00 | 91 | 1008.9 |
| 20260505085938 | 72 | 205 | 1.0 | 3.0 | 0.00 | 0.00 | 0.00 | 91 | 1008.9 |
| 20260505085839 | 72 | 218 | 1.0 | 3.0 | 0.00 | 0.00 | 0.00 | 91 | 1008.9 |
| 20260505085654 | 72 | 106 | 1.0 | 3.0 | 0.00 | 0.00 | 0.00 | 91 | 1008.9 |
| 20260505085553 | 72 | 153 | 1.0 | 3.0 | 0.00 | 0.00 | 0.00 | 91 | 1008.9 |
| 20260505085457 | 72 | 208 | 1.0 | 3.0 | 0.00 | 0.00 | 0.00 | 92 | 1008.9 |
| 20260505085451 | 72 | 202 | 1.0 | 3.0 | 0.00 | 0.00 | 0.00 | 92 | 1008.9 |
| 20260505085354 | 72 | 229 | 1.0 | 3.0 | 0.00 | 0.00 | 0.00 | 92 | 1008.9 |
| 20260505085254 | 72 | 286 | 1.0 | 3.0 | 0.00 | 0.00 | 0.00 | 92 | 1008.9 |
| 20260505085154 | 72 | 79 | 1.0 | 3.0 | 0.00 | 0.00 | 0.00 | 92 | 1008.9 |
| 20260505085054 | 72 | 234 | 1.0 | 3.0 | 0.00 | 0.00 | 0.00 | 92 | 1008.9 |
| 20260505084952 | 72 | 203 | 1.0 | 3.0 | 0.00 | 0.00 | 0.00 | 92 | 1008.8 |
| 20260505084852 | 72 | 155 | 1.0 | 3.0 | 0.00 | 0.00 | 0.00 | 92 | 1008.8 |
| 20260505084753 | 72 | 246 | 1.0 | 4.0 | 0.00 | 0.00 | 0.00 | 91 | 1008.8 |
| 20260505084639 | 72 | 220 | 1.0 | 4.0 | 0.00 | 0.00 | 0.00 | 91 | 1008.8 |
| 20260505084539 | 72 | 28 | 1.0 | 4.0 | 0.00 | 0.00 | 0.00 | 91 | 1008.8 |
| 20260505084423 | 72 | 210 | 1.0 | 4.0 | 0.00 | 0.00 | 0.00 | 91 | 1008.8 |
| 20260505084324 | 72 | 245 | 1.0 | 4.0 | 0.00 | 0.00 | 0.00 | 91 | 1008.8 |
| 20260505084224 | 72 | 46 | 1.0 | 4.0 | 0.00 | 0.00 | 0.00 | 91 | 1008.7 |
| 20260505084124 | 72 | 150 | 1.0 | 4.0 | 0.00 | 0.00 | 0.00 | 91 | 1008.7 |
| 20260505084023 | 72 | 142 | 1.0 | 4.0 | 0.00 | 0.00 | 0.00 | 91 | 1008.7 |
| 20260505083923 | 72 | 187 | 1.0 | 4.0 | 0.00 | 0.00 | 0.00 | 92 | 1008.8 |
| 20260505083824 | 72 | 185 | 1.0 | 4.0 | 0.00 | 0.00 | 0.00 | 91 | 1008.8 |
| 20260505083709 | 72 | 251 | 1.0 | 2.0 | 0.00 | 0.00 | 0.00 | 91 | 1008.8 |
| 20260505083614 | 72 | 244 | 1.0 | 2.0 | 0.00 | 0.00 | 0.00 | 91 | 1008.8 |
| 20260505083509 | 72 | 171 | 1.0 | 2.0 | 0.00 | 0.00 | 0.00 | 91 | 1008.8 |
| 20260505083422 | 72 | 99 | 1.0 | 3.0 | 0.00 | 0.00 | 0.00 | 91 | 1008.8 |
| 20260505083409 | 72 | 162 | 1.0 | 3.0 | 0.00 | 0.00 | 0.00 | 91 | 1008.8 |
| 20260505083254 | 72 | 71 | 1.0 | 3.0 | 0.00 | 0.00 | 0.00 | 91 | 1008.9 |
| 20260505083139 | 72 | 143 | 1.0 | 3.0 | 0.00 | 0.00 | 0.00 | 91 | 1008.9 |
| 20260505083131 | 72 | 217 | 1.0 | 3.0 | 0.00 | 0.00 | 0.00 | 91 | 1008.9 |
| 20260505083024 | 72 | 262 | 1.0 | 3.0 | 0.00 | 0.00 | 0.00 | 91 | 1008.9 |
| 20260505083013 | 72 | 208 | 1.0 | 3.0 | 0.00 | 0.00 | 0.00 | 91 | 1008.9 |
| 20260505082824 | 72 | 183 | 1.0 | 4.0 | 0.00 | 0.00 | 0.00 | 91 | 1008.9 |
| 20260505082723 | 72 | 58 | 1.0 | 4.0 | 0.00 | 0.00 | 0.00 | 91 | 1008.9 |
| 20260505082629 | 72 | 186 | 1.0 | 4.0 | 0.00 | 0.00 | 0.00 | 91 | 1008.9 |
| 20260505082624 | 72 | 251 | 1.0 | 4.0 | 0.00 | 0.00 | 0.00 | 91 | 1008.9 |
| 20260505082518 | 72 | 210 | 1.0 | 4.0 | 0.00 | 0.00 | 0.00 | 91 | 1008.9 |
| 20260505082513 | 72 | 186 | 1.0 | 4.0 | 0.00 | 0.00 | 0.00 | 91 | 1008.9 |
| 20260505082309 | 72 | 0 | 1.0 | 4.0 | 0.00 | 0.00 | 0.00 | 91 | 1009.0 |
| 20260505082154 | 72 | 219 | 1.0 | 4.0 | 0.00 | 0.00 | 0.00 | 91 | 1009.0 |
| 20260505082055 | 72 | 209 | 1.0 | 4.0 | 0.00 | 0.00 | 0.00 | 91 | 1009.0 |
| 20260505081954 | 72 | 188 | 1.0 | 4.0 | 0.00 | 0.00 | 0.00 | 91 | 1009.0 |
| 20260505081908 | 72 | 169 | 1.0 | 4.0 | 0.00 | 0.00 | 0.00 | 91 | 1009.0 |
| 20260505081854 | 72 | 167 | 1.0 | 4.0 | 0.00 | 0.00 | 0.00 | 91 | 1009.0 |
| 20260505081754 | 72 | 178 | 1.0 | 4.0 | 0.00 | 0.00 | 0.00 | 91 | 1009.0 |
| 20260505081654 | 72 | 346 | 1.0 | 3.0 | 0.00 | 0.00 | 0.00 | 91 | 1009.0 |
| 20260505081553 | 72 | 200 | 1.0 | 3.0 | 0.00 | 0.00 | 0.00 | 91 | 1009.0 |
| 20260505081454 | 72 | 77 | 1.0 | 3.0 | 0.00 | 0.00 | 0.00 | 91 | 1009.1 |
| 20260505081407 | 72 | 246 | 1.0 | 3.0 | 0.00 | 0.00 | 0.00 | 90 | 1009.1 |
| 20260505081359 | 72 | 68 | 1.0 | 3.0 | 0.00 | 0.00 | 0.00 | 90 | 1009.1 |
| 20260505081239 | 72 | 189 | 1.0 | 3.0 | 0.00 | 0.00 | 0.00 | 90 | 1009.1 |
| 20260505081129 | 72 | 68 | 1.0 | 3.0 | 0.00 | 0.00 | 0.00 | 90 | 1009.1 |
| 20260505081124 | 72 | 280 | 1.0 | 3.0 | 0.00 | 0.00 | 0.00 | 90 | 1009.1 |
| 20260505081024 | 72 | 214 | 1.0 | 3.0 | 0.00 | 0.00 | 0.00 | 90 | 1009.0 |
| 20260505081013 | 72 | 222 | 1.0 | 3.0 | 0.00 | 0.00 | 0.00 | 90 | 1009.1 |
| 20260505080824 | 72 | 31 | 1.0 | 3.0 | 0.00 | 0.00 | 0.00 | 90 | 1009.1 |
| 20260505080724 | 72 | 142 | 1.0 | 2.0 | 0.00 | 0.00 | 0.00 | 90 | 1009.1 |
| 20260505080625 | 72 | 170 | 1.0 | 2.0 | 0.00 | 0.00 | 0.00 | 90 | 1009.1 |
| 20260505080524 | 72 | 0 | 1.0 | 2.0 | 0.00 | 0.00 | 0.00 | 90 | 1009.2 |
| 20260505080354 | 72 | 277 | 1.0 | 2.0 | 0.00 | 0.00 | 0.00 | 90 | 1009.2 |
| 20260505075954 | 72 | 181 | 1.0 | 3.0 | 0.00 | 0.00 | 0.00 | 90 | 1009.2 |
| 20260505075809 | 72 | 180 | 1.0 | 3.0 | 0.00 | 0.00 | 0.00 | 90 | 1009.2 |
| 20260505075753 | 72 | 174 | 1.0 | 3.0 | 0.00 | 0.00 | 0.00 | 90 | 1009.2 |
| 20260505075709 | 72 | 174 | 1.0 | 3.0 | 0.00 | 0.00 | 0.00 | 90 | 1009.2 |
| 20260505075609 | 72 | 134 | 1.0 | 3.0 | 0.00 | 0.00 | 0.00 | 90 | 1009.2 |
| 20260505075454 | 72 | 226 | 1.0 | 3.0 | 0.00 | 0.00 | 0.00 | 90 | 1009.2 |
| 20260505075355 | 72 | 148 | 1.0 | 3.0 | 0.00 | 0.00 | 0.00 | 90 | 1009.2 |
| 20260505075254 | 72 | 213 | 1.0 | 2.0 | 0.00 | 0.00 | 0.00 | 90 | 1009.2 |
| 20260505075223 | 72 | 144 | 1.0 | 2.0 | 0.00 | 0.00 | 0.00 | 90 | 1009.2 |
| 20260505075154 | 72 | 144 | 1.0 | 2.0 | 0.00 | 0.00 | 0.00 | 90 | 1009.2 |
| 20260505075053 | 72 | 199 | 1.0 | 2.0 | 0.00 | 0.00 | 0.00 | 90 | 1009.2 |
| 20260505074953 | 72 | 38 | 1.0 | 2.0 | 0.00 | 0.00 | 0.00 | 90 | 1009.2 |
| 20260505074854 | 72 | 173 | 1.0 | 2.0 | 0.00 | 0.00 | 0.00 | 90 | 1009.2 |
| 20260505074753 | 72 | 148 | 1.0 | 2.0 | 0.00 | 0.00 | 0.00 | 90 | 1009.2 |
| 20260505074723 | 72 | 204 | 1.0 | 2.0 | 0.00 | 0.00 | 0.00 | 90 | 1009.2 |
| 20260505074653 | 72 | 187 | 1.0 | 2.0 | 0.00 | 0.00 | 0.00 | 90 | 1009.2 |
| 20260505074553 | 72 | 211 | 1.0 | 2.0 | 0.00 | 0.00 | 0.00 | 90 | 1009.2 |
| 20260505074453 | 72 | 66 | 1.0 | 2.0 | 0.00 | 0.00 | 0.00 | 90 | 1009.2 |
| 20260505074353 | 72 | 199 | 1.0 | 2.0 | 0.00 | 0.00 | 0.00 | 90 | 1009.2 |
| 20260505074253 | 72 | 303 | 1.0 | 2.0 | 0.00 | 0.00 | 0.00 | 90 | 1009.3 |
| 20260505074224 | 72 | 303 | 1.0 | 4.0 | 0.00 | 0.00 | 0.00 | 90 | 1009.3 |
| 20260505074153 | 72 | 225 | 1.0 | 4.0 | 0.00 | 0.00 | 0.00 | 90 | 1009.3 |
| 20260505074053 | 72 | 300 | 1.0 | 4.0 | 0.00 | 0.00 | 0.00 | 90 | 1009.2 |
| 20260505073953 | 72 | 62 | 1.0 | 4.0 | 0.00 | 0.00 | 0.00 | 90 | 1009.2 |
| 20260505073841 | 72 | 242 | 1.0 | 4.0 | 0.00 | 0.00 | 0.00 | 90 | 1009.2 |
| 20260505073740 | 72 | 168 | 1.0 | 4.0 | 0.00 | 0.00 | 0.00 | 90 | 1009.3 |
| 20260505073724 | 72 | 183 | 1.0 | 4.0 | 0.00 | 0.00 | 0.00 | 90 | 1009.3 |
| 20260505073640 | 72 | 18 | 1.0 | 4.0 | 0.00 | 0.00 | 0.00 | 90 | 1009.3 |
| 20260505073524 | 72 | 0 | 1.0 | 4.0 | 0.00 | 0.00 | 0.00 | 90 | 1009.3 |
| 20260505073409 | 72 | 140 | 1.0 | 4.0 | 0.00 | 0.00 | 0.00 | 90 | 1009.3 |
| 20260505073254 | 72 | 296 | 1.0 | 4.0 | 0.00 | 0.00 | 0.00 | 90 | 1009.3 |
| 20260505073223 | 72 | 189 | 1.0 | 3.0 | 0.00 | 0.00 | 0.00 | 90 | 1009.3 |
| 20260505073154 | 72 | 151 | 1.0 | 3.0 | 0.00 | 0.00 | 0.00 | 90 | 1009.3 |
| 20260505073054 | 72 | 161 | 1.0 | 3.0 | 0.00 | 0.00 | 0.00 | 90 | 1009.3 |
| 20260505072954 | 72 | 254 | 1.0 | 4.0 | 0.00 | 0.00 | 0.00 | 90 | 1009.4 |
| 20260505072854 | 72 | 82 | 1.0 | 4.0 | 0.00 | 0.00 | 0.00 | 90 | 1009.4 |
| 20260505072754 | 72 | 98 | 2.0 | 4.0 | 0.00 | 0.00 | 0.00 | 89 | 1009.4 |
| 20260505072708 | 72 | 191 | 1.0 | 4.0 | 0.00 | 0.00 | 0.00 | 89 | 1009.4 |
| 20260505072654 | 72 | 166 | 2.0 | 4.0 | 0.00 | 0.00 | 0.00 | 89 | 1009.4 |
| 20260505072554 | 72 | 12 | 2.0 | 5.0 | 0.00 | 0.00 | 0.00 | 90 | 1009.4 |
| 20260505072440 | 72 | 142 | 2.0 | 5.0 | 0.00 | 0.00 | 0.00 | 90 | 1009.4 |
| 20260505072429 | 72 | 231 | 1.0 | 5.0 | 0.00 | 0.00 | 0.00 | 90 | 1009.5 |
| 20260505072325 | 72 | 173 | 2.0 | 5.0 | 0.00 | 0.00 | 0.00 | 90 | 1009.4 |
| 20260505072315 | 72 | 231 | 1.0 | 5.0 | 0.00 | 0.00 | 0.00 | 90 | 1009.5 |
| 20260505072110 | 72 | 106 | 1.0 | 5.0 | 0.00 | 0.00 | 0.00 | 90 | 1009.5 |
| 20260505071955 | 72 | 205 | 1.0 | 5.0 | 0.00 | 0.00 | 0.00 | 90 | 1009.5 |
| 20260505071855 | 72 | 155 | 1.0 | 5.0 | 0.00 | 0.00 | 0.00 | 90 | 1009.5 |
| 20260505071753 | 72 | 0 | 1.0 | 5.0 | 0.00 | 0.00 | 0.00 | 90 | 1009.5 |
| 20260505071657 | 72 | 75 | 1.0 | 5.0 | 0.00 | 0.00 | 0.00 | 90 | 1009.5 |
| 20260505071652 | 72 | 90 | 1.0 | 5.0 | 0.00 | 0.00 | 0.00 | 90 | 1009.5 |
| 20260505071552 | 72 | 193 | 1.0 | 4.0 | 0.00 | 0.00 | 0.00 | 90 | 1009.5 |
| 20260505071528 | 72 | 155 | 1.0 | 4.0 | 0.00 | 0.00 | 0.00 | 90 | 1009.6 |
| 20260505071524 | 72 | 142 | 1.0 | 4.0 | 0.00 | 0.00 | 0.00 | 90 | 1009.6 |
| 20260505071520 | 72 | 281 | 1.0 | 4.0 | 0.00 | 0.00 | 0.00 | 90 | 1009.6 |
| 20260505071515 | 72 | 187 | 1.0 | 4.0 | 0.00 | 0.00 | 0.00 | 90 | 1009.6 |
| 20260505071511 | 72 | 157 | 1.0 | 4.0 | 0.00 | 0.00 | 0.00 | 90 | 1009.5 |
| 20260505071044 | 72 | 83 | 1.0 | 4.0 | 0.00 | 0.00 | 0.00 | 90 | 1009.6 |
| 20260505070944 | 72 | 167 | 1.0 | 4.0 | 0.00 | 0.00 | 0.00 | 90 | 1009.7 |
| 20260505070841 | 72 | 138 | 1.0 | 4.0 | 0.00 | 0.00 | 0.00 | 90 | 1009.7 |
| 20260505070734 | 72 | 167 | 1.0 | 4.0 | 0.00 | 0.00 | 0.00 | 90 | 1009.7 |
| 20260505070654 | 72 | 93 | 1.0 | 4.0 | 0.00 | 0.00 | 0.00 | 90 | 1009.7 |
| 20260505070634 | 72 | 56 | 1.0 | 4.0 | 0.00 | 0.00 | 0.00 | 90 | 1009.7 |
| 20260505070534 | 72 | 129 | 1.0 | 4.0 | 0.00 | 0.00 | 0.00 | 90 | 1009.7 |
| 20260505070434 | 72 | 0 | 1.0 | 4.0 | 0.00 | 0.00 | 0.00 | 90 | 1009.7 |
| 20260505070332 | 72 | 79 | 1.0 | 4.0 | 0.00 | 0.00 | 0.00 | 89 | 1009.7 |
| 20260505070231 | 72 | 79 | 1.0 | 3.0 | 0.00 | 0.00 | 0.00 | 89 | 1009.7 |
| 20260505070152 | 72 | 187 | 1.0 | 3.0 | 0.00 | 0.00 | 0.00 | 89 | 1009.7 |
| 20260505070132 | 72 | 116 | 1.0 | 3.0 | 0.00 | 0.00 | 0.00 | 89 | 1009.7 |
| 20260505070032 | 72 | 269 | 1.0 | 3.0 | 0.00 | 0.00 | 0.00 | 89 | 1009.7 |
| 20260505065926 | 72 | 206 | 1.0 | 3.0 | 0.00 | 0.00 | 0.00 | 89 | 1009.7 |
| 20260505065826 | 72 | 0 | 1.0 | 3.0 | 0.00 | 0.00 | 0.00 | 89 | 1009.7 |
| 20260505065726 | 72 | 179 | 1.0 | 3.0 | 0.00 | 0.00 | 0.00 | 89 | 1009.8 |
| 20260505065651 | 72 | 195 | 1.0 | 3.0 | 0.00 | 0.00 | 0.00 | 89 | 1009.8 |
| 20260505065619 | 72 | 196 | 1.0 | 3.0 | 0.00 | 0.00 | 0.00 | 89 | 1009.8 |
| 20260505065511 | 72 | 205 | 1.0 | 3.0 | 0.00 | 0.00 | 0.00 | 89 | 1009.8 |
| 20260505065415 | 72 | 74 | 1.0 | 5.0 | 0.00 | 0.00 | 0.00 | 89 | 1009.9 |
| 20260505065408 | 72 | 165 | 1.0 | 5.0 | 0.00 | 0.00 | 0.00 | 89 | 1009.9 |
| 20260505065308 | 72 | 0 | 1.0 | 5.0 | 0.00 | 0.00 | 0.00 | 89 | 1009.9 |
| 20260505065255 | 72 | 179 | 1.0 | 5.0 | 0.00 | 0.00 | 0.00 | 89 | 1009.9 |
| 20260505065105 | 72 | 0 | 1.0 | 5.0 | 0.00 | 0.00 | 0.00 | 89 | 1009.9 |
| 20260505064959 | 72 | 211 | 1.0 | 5.0 | 0.00 | 0.00 | 0.00 | 89 | 1009.9 |
| 20260505064856 | 72 | 189 | 1.0 | 5.0 | 0.00 | 0.00 | 0.00 | 89 | 1010.0 |
| 20260505064755 | 72 | 0 | 1.0 | 5.0 | 0.00 | 0.00 | 0.00 | 89 | 1010.0 |
| 20260505064649 | 72 | 183 | 1.0 | 5.0 | 0.00 | 0.00 | 0.00 | 89 | 1010.0 |
| 20260505064553 | 72 | 64 | 1.0 | 5.0 | 0.00 | 0.00 | 0.00 | 89 | 1010.0 |
| 20260505064452 | 72 | 0 | 1.0 | 5.0 | 0.00 | 0.00 | 0.00 | 89 | 1010.0 |
| 20260505064350 | 72 | 290 | 1.0 | 4.0 | 0.00 | 0.00 | 0.00 | 89 | 1010.0 |
| 20260505064247 | 71 | 123 | 1.0 | 4.0 | 0.00 | 0.00 | 0.00 | 89 | 1010.0 |
| 20260505064147 | 71 | 204 | 2.0 | 4.0 | 0.00 | 0.00 | 0.00 | 89 | 1010.0 |
| 20260505064041 | 71 | 163 | 2.0 | 4.0 | 0.00 | 0.00 | 0.00 | 89 | 1010.0 |
| 20260505063939 | 71 | 174 | 2.0 | 4.0 | 0.00 | 0.00 | 0.00 | 89 | 1010.1 |
| 20260505063839 | 71 | 61 | 1.0 | 4.0 | 0.00 | 0.00 | 0.00 | 89 | 1010.1 |
| 20260505063729 | 71 | 147 | 2.0 | 4.0 | 0.00 | 0.00 | 0.00 | 89 | 1010.1 |
| 20260505063643 | 71 | 54 | 1.0 | 4.0 | 0.00 | 0.00 | 0.00 | 89 | 1010.1 |
| 20260505063629 | 71 | 146 | 1.0 | 4.0 | 0.00 | 0.00 | 0.00 | 89 | 1010.1 |
| 20260505063521 | 71 | 154 | 1.0 | 4.0 | 0.00 | 0.00 | 0.00 | 89 | 1010.1 |
| 20260505063414 | 71 | 231 | 1.0 | 4.0 | 0.00 | 0.00 | 0.00 | 90 | 1010.1 |
| 20260505063308 | 71 | 116 | 1.0 | 4.0 | 0.00 | 0.00 | 0.00 | 90 | 1010.1 |
| 20260505063208 | 71 | 184 | 1.0 | 4.0 | 0.00 | 0.00 | 0.00 | 90 | 1010.3 |
| 20260505063130 | 71 | 73 | 1.0 | 4.0 | 0.00 | 0.00 | 0.00 | 90 | 1010.3 |
| 20260505063053 | 71 | 204 | 1.0 | 4.0 | 0.00 | 0.00 | 0.00 | 90 | 1010.3 |
| 20260505062953 | 71 | 188 | 1.0 | 4.0 | 0.00 | 0.00 | 0.00 | 90 | 1010.3 |
| 20260505062853 | 71 | 194 | 1.0 | 4.0 | 0.00 | 0.00 | 0.00 | 90 | 1010.3 |
| 20260505062753 | 71 | 147 | 1.0 | 4.0 | 0.00 | 0.00 | 0.00 | 90 | 1010.3 |
| 20260505062650 | 71 | 190 | 1.0 | 4.0 | 0.00 | 0.00 | 0.00 | 89 | 1010.3 |
| 20260505062619 | 71 | 218 | 1.0 | 4.0 | 0.00 | 0.00 | 0.00 | 89 | 1010.3 |
| 20260505062550 | 71 | 170 | 1.0 | 4.0 | 0.00 | 0.00 | 0.00 | 89 | 1010.3 |
| 20260505062450 | 71 | 195 | 1.0 | 4.0 | 0.00 | 0.00 | 0.00 | 89 | 1010.3 |
| 20260505062349 | 71 | 0 | 1.0 | 4.0 | 0.00 | 0.00 | 0.00 | 89 | 1010.3 |
| 20260505062244 | 71 | 177 | 1.0 | 5.0 | 0.00 | 0.00 | 0.00 | 89 | 1010.3 |
| 20260505062145 | 71 | 65 | 2.0 | 6.0 | 0.00 | 0.00 | 0.00 | 89 | 1010.3 |
| 20260505062119 | 71 | 347 | 2.0 | 6.0 | 0.00 | 0.00 | 0.00 | 89 | 1010.3 |
| 20260505062045 | 71 | 227 | 2.0 | 6.0 | 0.00 | 0.00 | 0.00 | 89 | 1010.3 |
| 20260505061944 | 71 | 162 | 2.0 | 6.0 | 0.00 | 0.00 | 0.00 | 89 | 1010.3 |
| 20260505061844 | 71 | 214 | 2.0 | 6.0 | 0.00 | 0.00 | 0.00 | 89 | 1010.3 |
| 20260505061744 | 71 | 182 | 2.0 | 6.0 | 0.00 | 0.00 | 0.00 | 89 | 1010.3 |
| 20260505061644 | 71 | 140 | 1.0 | 6.0 | 0.00 | 0.00 | 0.00 | 89 | 1010.3 |
| 20260505061619 | 71 | 61 | 1.0 | 6.0 | 0.00 | 0.00 | 0.00 | 89 | 1010.3 |
| 20260505061544 | 71 | 209 | 1.0 | 6.0 | 0.00 | 0.00 | 0.00 | 89 | 1010.3 |
| 20260505061444 | 71 | 177 | 1.0 | 6.0 | 0.00 | 0.00 | 0.00 | 89 | 1010.3 |
| 20260505061344 | 71 | 356 | 1.0 | 6.0 | 0.00 | 0.00 | 0.00 | 90 | 1010.3 |
| 20260505061241 | 71 | 220 | 1.0 | 6.0 | 0.00 | 0.00 | 0.00 | 90 | 1010.3 |
| 20260505061141 | 71 | 189 | 1.0 | 4.0 | 0.00 | 0.00 | 0.00 | 90 | 1010.4 |
| 20260505061117 | 71 | 110 | 1.0 | 3.0 | 0.00 | 0.00 | 0.00 | 90 | 1010.4 |
| 20260505061041 | 71 | 112 | 1.0 | 3.0 | 0.00 | 0.00 | 0.00 | 90 | 1010.4 |
| 20260505060938 | 71 | 172 | 1.0 | 3.0 | 0.00 | 0.00 | 0.00 | 90 | 1010.4 |
| 20260505060838 | 71 | 105 | 1.0 | 3.0 | 0.00 | 0.00 | 0.00 | 90 | 1010.4 |
| 20260505060738 | 71 | 206 | 1.0 | 4.0 | 0.00 | 0.00 | 0.00 | 89 | 1010.4 |
| 20260505060638 | 71 | 43 | 1.0 | 4.0 | 0.00 | 0.00 | 0.00 | 89 | 1010.4 |
| 20260505060617 | 71 | 271 | 1.0 | 4.0 | 0.00 | 0.00 | 0.00 | 89 | 1010.4 |
| 20260505060535 | 71 | 197 | 1.0 | 4.0 | 0.00 | 0.00 | 0.00 | 89 | 1010.4 |
| 20260505060435 | 71 | 113 | 1.0 | 6.0 | 0.00 | 0.00 | 0.00 | 89 | 1010.4 |
| 20260505060343 | 71 | 96 | 1.0 | 6.0 | 0.00 | 0.00 | 0.00 | 89 | 1010.3 |
| 20260505060335 | 71 | 102 | 1.0 | 6.0 | 0.00 | 0.00 | 0.00 | 89 | 1010.3 |
| 20260505060235 | 71 | 282 | 1.0 | 6.0 | 0.00 | 0.00 | 0.00 | 89 | 1010.3 |
| 20260505060222 | 71 | 182 | 1.0 | 6.0 | 0.00 | 0.00 | 0.00 | 89 | 1010.3 |
| 20260505060030 | 71 | 236 | 1.0 | 6.0 | 0.00 | 0.00 | 0.00 | 89 | 1010.3 |
| 20260505055929 | 71 | 195 | 1.0 | 6.0 | 0.00 | 0.00 | 0.00 | 90 | 1010.3 |
| 20260505055829 | 71 | 118 | 1.0 | 6.0 | 0.00 | 0.00 | 0.00 | 89 | 1010.3 |
| 20260505055729 | 71 | 243 | 1.0 | 6.0 | 0.00 | 0.00 | 0.00 | 89 | 1010.4 |
| 20260505055626 | 71 | 35 | 1.0 | 6.0 | 0.00 | 0.00 | 0.00 | 90 | 1010.4 |
| 20260505055613 | 71 | 158 | 1.0 | 6.0 | 0.00 | 0.00 | 0.00 | 90 | 1010.4 |
| 20260505055527 | 71 | 200 | 1.0 | 6.0 | 0.00 | 0.00 | 0.00 | 90 | 1010.4 |
| 20260505055424 | 71 | 161 | 1.0 | 3.0 | 0.00 | 0.00 | 0.00 | 90 | 1010.4 |
| 20260505055321 | 71 | 61 | 1.0 | 3.0 | 0.00 | 0.00 | 0.00 | 90 | 1010.4 |
| 20260505055221 | 71 | 139 | 1.0 | 4.0 | 0.00 | 0.00 | 0.00 | 90 | 1010.4 |
| 20260505055115 | 71 | 167 | 1.0 | 4.0 | 0.00 | 0.00 | 0.00 | 89 | 1010.4 |
| 20260505055110 | 71 | 193 | 1.0 | 4.0 | 0.00 | 0.00 | 0.00 | 89 | 1010.4 |
| 20260505055014 | 71 | 213 | 1.0 | 4.0 | 0.00 | 0.00 | 0.00 | 89 | 1010.4 |
| 20260505054911 | 71 | 0 | 1.0 | 4.0 | 0.00 | 0.00 | 0.00 | 90 | 1010.4 |
| 20260505054812 | 71 | 190 | 1.0 | 4.0 | 0.00 | 0.00 | 0.00 | 90 | 1010.4 |
| 20260505054711 | 71 | 261 | 1.0 | 4.0 | 0.00 | 0.00 | 0.00 | 89 | 1010.4 |
| 20260505054609 | 71 | 119 | 1.0 | 4.0 | 0.00 | 0.00 | 0.00 | 89 | 1010.4 |
| 20260505054506 | 71 | 184 | 1.0 | 4.0 | 0.00 | 0.00 | 0.00 | 89 | 1010.4 |
| 20260505054405 | 71 | 0 | 1.0 | 4.0 | 0.00 | 0.00 | 0.00 | 90 | 1010.4 |
| 20260505054300 | 71 | 200 | 1.0 | 4.0 | 0.00 | 0.00 | 0.00 | 90 | 1010.4 |
| 20260505054200 | 71 | 192 | 1.0 | 4.0 | 0.00 | 0.00 | 0.00 | 90 | 1010.4 |
| 20260505054107 | 71 | 135 | 1.0 | 4.0 | 0.00 | 0.00 | 0.00 | 89 | 1010.4 |
| 20260505054100 | 71 | 135 | 1.0 | 4.0 | 0.00 | 0.00 | 0.00 | 89 | 1010.4 |
| 20260505053959 | 71 | 202 | 1.0 | 4.0 | 0.00 | 0.00 | 0.00 | 89 | 1010.4 |
| 20260505053857 | 71 | 307 | 1.0 | 4.0 | 0.00 | 0.00 | 0.00 | 89 | 1010.5 |
| 20260505053755 | 71 | 189 | 1.0 | 4.0 | 0.00 | 0.00 | 0.00 | 89 | 1010.5 |
| 20260505053651 | 71 | 170 | 1.0 | 4.0 | 0.00 | 0.00 | 0.00 | 89 | 1010.5 |
| 20260505053608 | 71 | 221 | 1.0 | 5.0 | 0.00 | 0.00 | 0.00 | 89 | 1010.5 |
| 20260505053551 | 71 | 153 | 1.0 | 5.0 | 0.00 | 0.00 | 0.00 | 89 | 1010.5 |
| 20260505053451 | 71 | 190 | 1.0 | 5.0 | 0.00 | 0.00 | 0.00 | 89 | 1010.5 |
| 20260505053351 | 71 | 40 | 1.0 | 5.0 | 0.00 | 0.00 | 0.00 | 89 | 1010.5 |
| 20260505053248 | 70 | 227 | 1.0 | 5.0 | 0.00 | 0.00 | 0.00 | 89 | 1010.5 |
| 20260505053148 | 70 | 194 | 1.0 | 5.0 | 0.00 | 0.00 | 0.00 | 89 | 1010.5 |
| 20260505053105 | 70 | 186 | 1.0 | 5.0 | 0.00 | 0.00 | 0.00 | 89 | 1010.5 |
| 20260505053048 | 70 | 148 | 1.0 | 5.0 | 0.00 | 0.00 | 0.00 | 89 | 1010.5 |
| 20260505052948 | 70 | 186 | 1.0 | 5.0 | 0.00 | 0.00 | 0.00 | 89 | 1010.5 |
| 20260505052839 | 70 | 149 | 1.0 | 5.0 | 0.00 | 0.00 | 0.00 | 89 | 1010.5 |
| 20260505052739 | 70 | 0 | 1.0 | 5.0 | 0.00 | 0.00 | 0.00 | 89 | 1010.5 |
| 20260505052639 | 70 | 188 | 1.0 | 5.0 | 0.00 | 0.00 | 0.00 | 89 | 1010.5 |
| 20260505052605 | 70 | 178 | 1.0 | 4.0 | 0.00 | 0.00 | 0.00 | 89 | 1010.5 |
| 20260505052539 | 70 | 56 | 1.0 | 4.0 | 0.00 | 0.00 | 0.00 | 89 | 1010.5 |
| 20260505052438 | 70 | 89 | 1.0 | 4.0 | 0.00 | 0.00 | 0.00 | 89 | 1010.5 |
| 20260505052336 | 70 | 181 | 1.0 | 4.0 | 0.00 | 0.00 | 0.00 | 89 | 1010.5 |
| 20260505052236 | 70 | 216 | 1.0 | 4.0 | 0.00 | 0.00 | 0.00 | 89 | 1010.5 |
| 20260505052135 | 70 | 0 | 1.0 | 4.0 | 0.00 | 0.00 | 0.00 | 89 | 1010.5 |
| 20260505052105 | 70 | 83 | 1.0 | 4.0 | 0.00 | 0.00 | 0.00 | 89 | 1010.5 |
| 20260505052037 | 70 | 118 | 1.0 | 4.0 | 0.00 | 0.00 | 0.00 | 89 | 1010.5 |
| 20260505051936 | 70 | 0 | 1.0 | 4.0 | 0.00 | 0.00 | 0.00 | 89 | 1010.5 |
| 20260505051827 | 70 | 196 | 1.0 | 4.0 | 0.00 | 0.00 | 0.00 | 89 | 1010.5 |
| 20260505051728 | 70 | 216 | 1.0 | 4.0 | 0.00 | 0.00 | 0.00 | 89 | 1010.5 |
| 20260505051627 | 70 | 0 | 1.0 | 4.0 | 0.00 | 0.00 | 0.00 | 89 | 1010.5 |
| 20260505051602 | 70 | 224 | 1.0 | 4.0 | 0.00 | 0.00 | 0.00 | 89 | 1010.5 |
| 20260505051527 | 70 | 141 | 1.0 | 4.0 | 0.00 | 0.00 | 0.00 | 89 | 1010.5 |
| 20260505051427 | 70 | 185 | 1.0 | 4.0 | 0.00 | 0.00 | 0.00 | 89 | 1010.5 |
| 20260505051327 | 70 | 170 | 1.0 | 4.0 | 0.00 | 0.00 | 0.00 | 89 | 1010.5 |
| 20260505051224 | 70 | 224 | 1.0 | 5.0 | 0.00 | 0.00 | 0.00 | 89 | 1010.5 |
| 20260505051106 | 70 | 192 | 1.0 | 5.0 | 0.00 | 0.00 | 0.00 | 89 | 1010.5 |
| 20260505051059 | 70 | 86 | 1.0 | 5.0 | 0.00 | 0.00 | 0.00 | 89 | 1010.5 |
| 20260505051006 | 70 | 0 | 1.0 | 5.0 | 0.00 | 0.00 | 0.00 | 89 | 1010.5 |
| 20260505050907 | 70 | 47 | 1.0 | 5.0 | 0.00 | 0.00 | 0.00 | 89 | 1010.5 |
| 20260505050828 | 70 | 0 | 1.0 | 5.0 | 0.00 | 0.00 | 0.00 | 89 | 1010.5 |
| 20260505050806 | 70 | 145 | 1.0 | 5.0 | 0.00 | 0.00 | 0.00 | 89 | 1010.5 |
| 20260505050710 | 70 | 271 | 1.0 | 5.0 | 0.00 | 0.00 | 0.00 | 89 | 1010.5 |
| 20260505050705 | 70 | 0 | 1.0 | 5.0 | 0.00 | 0.00 | 0.00 | 89 | 1010.5 |
| 20260505050540 | 70 | 306 | 1.0 | 5.0 | 0.00 | 0.00 | 0.00 | 89 | 1010.5 |
| 20260505050507 | 70 | 157 | 1.0 | 5.0 | 0.00 | 0.00 | 0.00 | 89 | 1010.5 |
| 20260505050426 | 70 | 33 | 1.0 | 5.0 | 0.00 | 0.00 | 0.00 | 89 | 1010.5 |
| 20260505050303 | 70 | 169 | 1.0 | 5.0 | 0.00 | 0.00 | 0.00 | 89 | 1010.5 |
| 20260505050205 | 70 | 182 | 1.0 | 5.0 | 0.00 | 0.00 | 0.00 | 89 | 1010.5 |
| 20260505041728 | 69 | 108 | 1.0 | 2.0 | 0.00 | 0.00 | 0.00 | 89 | 1010.7 |
| 20260505041625 | 69 | 0 | 1.0 | 2.0 | 0.00 | 0.00 | 0.00 | 89 | 1010.7 |
| 20260505041554 | 69 | 135 | 1.0 | 2.0 | 0.00 | 0.00 | 0.00 | 89 | 1010.7 |
| 20260505041524 | 69 | 0 | 1.0 | 2.0 | 0.00 | 0.00 | 0.00 | 89 | 1010.7 |
| 20260505041419 | 69 | 199 | 1.0 | 2.0 | 0.00 | 0.00 | 0.00 | 89 | 1010.7 |
| 20260505041316 | 69 | 113 | 1.0 | 2.0 | 0.00 | 0.00 | 0.00 | 89 | 1010.7 |
| 20260505041211 | 69 | 109 | 1.0 | 4.0 | 0.00 | 0.00 | 0.00 | 89 | 1010.8 |
| 20260505041110 | 69 | 55 | 1.0 | 4.0 | 0.00 | 0.00 | 0.00 | 89 | 1010.8 |
| 20260505041051 | 69 | 240 | 1.0 | 4.0 | 0.00 | 0.00 | 0.00 | 89 | 1010.8 |
| 20260505041010 | 69 | 154 | 1.0 | 4.0 | 0.00 | 0.00 | 0.00 | 89 | 1010.8 |
| 20260505040910 | 69 | 0 | 1.0 | 4.0 | 0.00 | 0.00 | 0.00 | 89 | 1010.9 |
| 20260505040811 | 69 | 87 | 1.0 | 4.0 | 0.00 | 0.00 | 0.00 | 89 | 1010.9 |
| 20260505040710 | 69 | 207 | 1.0 | 4.0 | 0.00 | 0.00 | 0.00 | 89 | 1010.9 |
| 20260505040607 | 69 | 127 | 1.0 | 4.0 | 0.00 | 0.00 | 0.00 | 89 | 1010.9 |
| 20260505040548 | 69 | 100 | 1.0 | 4.0 | 0.00 | 0.00 | 0.00 | 89 | 1010.9 |
| 20260505040507 | 69 | 0 | 1.0 | 4.0 | 0.00 | 0.00 | 0.00 | 89 | 1010.9 |
| 20260505040407 | 69 | 0 | 1.0 | 4.0 | 0.00 | 0.00 | 0.00 | 89 | 1011.0 |
| 20260505040309 | 69 | 0 | 1.0 | 4.0 | 0.00 | 0.00 | 0.00 | 89 | 1011.0 |
| 20260505040202 | 69 | 98 | 1.0 | 2.0 | 0.00 | 0.00 | 0.00 | 89 | 1011.0 |
| 20260505040101 | 69 | 0 | 1.0 | 2.0 | 0.00 | 0.00 | 0.00 | 89 | 1011.0 |
| 20260505040048 | 69 | 40 | 1.0 | 2.0 | 0.00 | 0.00 | 0.00 | 89 | 1011.0 |
| 20260505035959 | 69 | 226 | 1.0 | 2.0 | 0.00 | 0.00 | 0.00 | 89 | 1011.0 |
| 20260505035859 | 69 | 192 | 0.0 | 2.0 | 0.00 | 0.00 | 0.00 | 89 | 1011.0 |
| 20260505035758 | 69 | 69 | 0.0 | 2.0 | 0.00 | 0.00 | 0.00 | 89 | 1011.0 |
| 20260505035659 | 69 | 357 | 0.0 | 2.0 | 0.00 | 0.00 | 0.00 | 89 | 1011.0 |
| 20260505035558 | 69 | 6 | 0.0 | 2.0 | 0.00 | 0.00 | 0.00 | 89 | 1011.0 |
| 20260505035548 | 69 | 284 | 0.0 | 2.0 | 0.00 | 0.00 | 0.00 | 89 | 1011.0 |
| 20260505035459 | 69 | 92 | 0.0 | 2.0 | 0.00 | 0.00 | 0.00 | 89 | 1011.0 |
| 20260505035357 | 69 | 81 | 0.0 | 2.0 | 0.00 | 0.00 | 0.00 | 89 | 1011.0 |
| 20260505035257 | 69 | 0 | 0.0 | 2.0 | 0.00 | 0.00 | 0.00 | 89 | 1011.0 |
| 20260505035157 | 69 | 118 | 0.0 | 2.0 | 0.00 | 0.00 | 0.00 | 88 | 1011.1 |
| 20260505035058 | 69 | 84 | 0.0 | 4.0 | 0.00 | 0.00 | 0.00 | 88 | 1011.1 |
| 20260505035052 | 69 | 0 | 0.0 | 4.0 | 0.00 | 0.00 | 0.00 | 88 | 1011.1 |
| 20260505034955 | 69 | 0 | 1.0 | 4.0 | 0.00 | 0.00 | 0.00 | 88 | 1011.1 |
| 20260505034853 | 69 | 265 | 1.0 | 4.0 | 0.00 | 0.00 | 0.00 | 88 | 1011.1 |
| 20260505034750 | 69 | 183 | 1.0 | 4.0 | 0.00 | 0.00 | 0.00 | 88 | 1011.1 |
| 20260505034647 | 69 | 274 | 1.0 | 4.0 | 0.00 | 0.00 | 0.00 | 88 | 1011.1 |
| 20260505034547 | 69 | 178 | 1.0 | 4.0 | 0.00 | 0.00 | 0.00 | 88 | 1011.1 |
| 20260505034447 | 69 | 0 | 1.0 | 4.0 | 0.00 | 0.00 | 0.00 | 88 | 1011.2 |
| 20260505034347 | 69 | 76 | 1.0 | 4.0 | 0.00 | 0.00 | 0.00 | 88 | 1011.2 |
| 20260505034247 | 69 | 66 | 1.0 | 4.0 | 0.00 | 0.00 | 0.00 | 88 | 1011.2 |
| 20260505034144 | 69 | 250 | 1.0 | 3.0 | 0.00 | 0.00 | 0.00 | 88 | 1011.2 |
| 20260505034048 | 69 | 188 | 1.0 | 2.0 | 0.00 | 0.00 | 0.00 | 88 | 1011.1 |
| 20260505034041 | 69 | 36 | 1.0 | 2.0 | 0.00 | 0.00 | 0.00 | 88 | 1011.1 |
| 20260505033941 | 69 | 165 | 1.0 | 2.0 | 0.00 | 0.00 | 0.00 | 88 | 1011.1 |
| 20260505033834 | 69 | 0 | 1.0 | 2.0 | 0.00 | 0.00 | 0.00 | 88 | 1011.1 |
| 20260505033734 | 69 | 87 | 0.0 | 2.0 | 0.00 | 0.00 | 0.00 | 88 | 1011.1 |
| 20260505033634 | 69 | 288 | 0.0 | 2.0 | 0.00 | 0.00 | 0.00 | 88 | 1011.1 |
| 20260505033548 | 69 | 199 | 0.0 | 2.0 | 0.00 | 0.00 | 0.00 | 88 | 1011.1 |
| 20260505033532 | 69 | 35 | 0.0 | 2.0 | 0.00 | 0.00 | 0.00 | 88 | 1011.1 |
| 20260505033426 | 69 | 50 | 0.0 | 2.0 | 0.00 | 0.00 | 0.00 | 88 | 1011.1 |
| 20260505033326 | 69 | 189 | 0.0 | 2.0 | 0.00 | 0.00 | 0.00 | 88 | 1011.1 |
| 20260505033222 | 69 | 0 | 0.0 | 2.0 | 0.00 | 0.00 | 0.00 | 88 | 1011.1 |
| 20260505033120 | 69 | 87 | 0.0 | 2.0 | 0.00 | 0.00 | 0.00 | 88 | 1011.1 |
| 20260505033043 | 69 | 104 | 0.0 | 2.0 | 0.00 | 0.00 | 0.00 | 88 | 1011.1 |
| 20260505033019 | 69 | 179 | 0.0 | 2.0 | 0.00 | 0.00 | 0.00 | 88 | 1011.1 |
| 20260505032919 | 69 | 0 | 0.0 | 2.0 | 0.00 | 0.00 | 0.00 | 88 | 1011.1 |
| 20260505032817 | 69 | 0 | 0.0 | 3.0 | 0.00 | 0.00 | 0.00 | 88 | 1011.1 |
| 20260505032714 | 69 | 255 | 0.0 | 3.0 | 0.00 | 0.00 | 0.00 | 88 | 1011.1 |
| 20260505032614 | 69 | 0 | 0.0 | 3.0 | 0.00 | 0.00 | 0.00 | 88 | 1011.1 |
| 20260505032542 | 70 | 0 | 0.0 | 3.0 | 0.00 | 0.00 | 0.00 | 88 | 1011.1 |
| 20260505032511 | 70 | 123 | 0.0 | 3.0 | 0.00 | 0.00 | 0.00 | 88 | 1011.1 |
| 20260505032411 | 70 | 205 | 0.0 | 3.0 | 0.00 | 0.00 | 0.00 | 87 | 1011.1 |
| 20260505032311 | 70 | 0 | 0.0 | 3.0 | 0.00 | 0.00 | 0.00 | 87 | 1011.2 |
| 20260505032211 | 70 | 0 | 1.0 | 3.0 | 0.00 | 0.00 | 0.00 | 87 | 1011.1 |
| 20260505032108 | 70 | 272 | 1.0 | 3.0 | 0.00 | 0.00 | 0.00 | 87 | 1011.1 |
| 20260505032043 | 70 | 0 | 1.0 | 3.0 | 0.00 | 0.00 | 0.00 | 87 | 1011.1 |
| 20260505032005 | 70 | 288 | 1.0 | 3.0 | 0.00 | 0.00 | 0.00 | 87 | 1011.1 |
| 20260505031858 | 70 | 51 | 1.0 | 3.0 | 0.00 | 0.00 | 0.00 | 87 | 1011.1 |
| 20260505031759 | 70 | 86 | 1.0 | 2.0 | 0.00 | 0.00 | 0.00 | 87 | 1011.1 |
| 20260505031659 | 70 | 293 | 1.0 | 2.0 | 0.00 | 0.00 | 0.00 | 87 | 1011.1 |
| 20260505031559 | 70 | 65 | 1.0 | 2.0 | 0.00 | 0.00 | 0.00 | 87 | 1011.1 |
| 20260505031542 | 70 | 0 | 1.0 | 2.0 | 0.00 | 0.00 | 0.00 | 87 | 1011.1 |
| 20260505031456 | 70 | 69 | 1.0 | 2.0 | 0.00 | 0.00 | 0.00 | 87 | 1011.1 |
| 20260505031353 | 70 | 78 | 1.0 | 2.0 | 0.00 | 0.00 | 0.00 | 87 | 1011.1 |
| 20260505031253 | 70 | 92 | 1.0 | 3.0 | 0.00 | 0.00 | 0.00 | 87 | 1011.1 |
| 20260505031153 | 70 | 99 | 0.0 | 3.0 | 0.00 | 0.00 | 0.00 | 87 | 1011.1 |
| 20260505031042 | 70 | 0 | 0.0 | 3.0 | 0.00 | 0.00 | 0.00 | 87 | 1011.1 |
| 20260505030950 | 70 | 144 | 1.0 | 3.0 | 0.00 | 0.00 | 0.00 | 87 | 1011.1 |
| 20260505030841 | 70 | 164 | 1.0 | 3.0 | 0.00 | 0.00 | 0.00 | 87 | 1011.1 |
| 20260505030735 | 70 | 0 | 1.0 | 3.0 | 0.00 | 0.00 | 0.00 | 87 | 1011.1 |
| 20260505030632 | 70 | 192 | 1.0 | 3.0 | 0.00 | 0.00 | 0.00 | 87 | 1011.1 |
| 20260505030532 | 70 | 0 | 1.0 | 3.0 | 0.00 | 0.00 | 0.00 | 87 | 1011.1 |
| 20260505030433 | 70 | 127 | 1.0 | 3.0 | 0.00 | 0.00 | 0.00 | 87 | 1011.1 |
| 20260505030331 | 70 | 0 | 1.0 | 3.0 | 0.00 | 0.00 | 0.00 | 87 | 1011.1 |
| 20260505030231 | 70 | 156 | 1.0 | 3.0 | 0.00 | 0.00 | 0.00 | 87 | 1011.1 |
| 20260505030128 | 70 | 344 | 1.0 | 3.0 | 0.00 | 0.00 | 0.00 | 87 | 1011.1 |
| 20260505030037 | 70 | 181 | 0.0 | 3.0 | 0.00 | 0.00 | 0.00 | 86 | 1011.1 |
| 20260505030030 | 70 | 211 | 0.0 | 3.0 | 0.00 | 0.00 | 0.00 | 86 | 1011.1 |
| 20260505025930 | 70 | 68 | 0.0 | 3.0 | 0.00 | 0.00 | 0.00 | 86 | 1011.1 |
| 20260505025829 | 70 | 137 | 0.0 | 2.0 | 0.00 | 0.00 | 0.00 | 86 | 1011.0 |
| 20260505025753 | 70 | 0 | 0.0 | 2.0 | 0.00 | 0.00 | 0.00 | 86 | 1011.1 |
| 20260505025730 | 70 | 69 | 0.0 | 2.0 | 0.00 | 0.00 | 0.00 | 86 | 1011.0 |
| 20260505025639 | 70 | 95 | 0.0 | 2.0 | 0.00 | 0.00 | 0.00 | 86 | 1011.1 |
| 20260505025525 | 70 | 0 | 0.0 | 2.0 | 0.00 | 0.00 | 0.00 | 86 | 1011.1 |
| 20260505025517 | 70 | 0 | 1.0 | 3.0 | 0.00 | 0.00 | 0.00 | 86 | 1011.1 |
| 20260505025426 | 70 | 209 | 0.0 | 3.0 | 0.00 | 0.00 | 0.00 | 86 | 1011.1 |
| 20260505025404 | 70 | 75 | 0.0 | 3.0 | 0.00 | 0.00 | 0.00 | 86 | 1011.1 |
| 20260505025216 | 70 | 233 | 0.0 | 3.0 | 0.00 | 0.00 | 0.00 | 86 | 1011.1 |
| 20260505025140 | 70 | 0 | 0.0 | 3.0 | 0.00 | 0.00 | 0.00 | 86 | 1011.1 |
| 20260505025017 | 70 | 245 | 1.0 | 3.0 | 0.00 | 0.00 | 0.00 | 86 | 1011.1 |
| 20260505024917 | 70 | 0 | 1.0 | 3.0 | 0.00 | 0.00 | 0.00 | 86 | 1011.1 |
| 20260505024817 | 70 | 188 | 1.0 | 3.0 | 0.00 | 0.00 | 0.00 | 86 | 1011.1 |
| 20260505024717 | 70 | 188 | 1.0 | 3.0 | 0.00 | 0.00 | 0.00 | 85 | 1011.2 |
| 20260505024617 | 70 | 0 | 1.0 | 3.0 | 0.00 | 0.00 | 0.00 | 85 | 1011.2 |
| 20260505024533 | 70 | 0 | 1.0 | 3.0 | 0.00 | 0.00 | 0.00 | 85 | 1011.2 |
| 20260505024517 | 70 | 281 | 1.0 | 3.0 | 0.00 | 0.00 | 0.00 | 85 | 1011.2 |
| 20260505024414 | 70 | 229 | 1.0 | 3.0 | 0.00 | 0.00 | 0.00 | 85 | 1011.2 |
| 20260505024314 | 70 | 188 | 1.0 | 3.0 | 0.00 | 0.00 | 0.00 | 85 | 1011.2 |
| 20260505024214 | 70 | 86 | 1.0 | 3.0 | 0.00 | 0.00 | 0.00 | 85 | 1011.2 |
| 20260505024114 | 70 | 226 | 1.0 | 3.0 | 0.00 | 0.00 | 0.00 | 85 | 1011.2 |
| 20260505024033 | 70 | 0 | 1.0 | 3.0 | 0.00 | 0.00 | 0.00 | 85 | 1011.2 |
| 20260505024014 | 70 | 247 | 1.0 | 3.0 | 0.00 | 0.00 | 0.00 | 85 | 1011.2 |
| 20260505023914 | 70 | 183 | 1.0 | 3.0 | 0.00 | 0.00 | 0.00 | 85 | 1011.2 |
| 20260505023814 | 71 | 0 | 1.0 | 3.0 | 0.00 | 0.00 | 0.00 | 85 | 1011.1 |
| 20260505023714 | 71 | 137 | 1.0 | 3.0 | 0.00 | 0.00 | 0.00 | 85 | 1011.1 |
| 20260505023614 | 71 | 0 | 1.0 | 3.0 | 0.00 | 0.00 | 0.00 | 85 | 1011.1 |
| 20260505023535 | 71 | 179 | 1.0 | 3.0 | 0.00 | 0.00 | 0.00 | 85 | 1011.1 |
| 20260505023514 | 71 | 229 | 1.0 | 3.0 | 0.00 | 0.00 | 0.00 | 85 | 1011.1 |
| 20260505023415 | 71 | 247 | 1.0 | 3.0 | 0.00 | 0.00 | 0.00 | 85 | 1011.1 |
| 20260505023315 | 71 | 162 | 1.0 | 3.0 | 0.00 | 0.00 | 0.00 | 85 | 1011.1 |
| 20260505023214 | 71 | 77 | 1.0 | 3.0 | 0.00 | 0.00 | 0.00 | 85 | 1011.1 |
| 20260505023114 | 71 | 215 | 1.0 | 3.0 | 0.00 | 0.00 | 0.00 | 85 | 1011.1 |
| 20260505023031 | 71 | 159 | 0.0 | 3.0 | 0.00 | 0.00 | 0.00 | 85 | 1011.1 |
| 20260505023015 | 71 | 109 | 0.0 | 3.0 | 0.00 | 0.00 | 0.00 | 85 | 1011.1 |
| 20260505022915 | 71 | 0 | 0.0 | 3.0 | 0.00 | 0.00 | 0.00 | 85 | 1011.1 |
| 20260505022814 | 71 | 80 | 0.0 | 3.0 | 0.00 | 0.00 | 0.00 | 85 | 1011.1 |
| 20260505022751 | 71 | 225 | 0.0 | 2.0 | 0.00 | 0.00 | 0.00 | 84 | 1011.0 |
| 20260505022714 | 71 | 99 | 0.0 | 2.0 | 0.00 | 0.00 | 0.00 | 84 | 1011.1 |
| 20260505022634 | 71 | 62 | 0.0 | 2.0 | 0.00 | 0.00 | 0.00 | 84 | 1011.0 |
| 20260505022515 | 71 | 243 | 0.0 | 2.0 | 0.00 | 0.00 | 0.00 | 84 | 1011.0 |
| 20260505022414 | 71 | 19 | 0.0 | 2.0 | 0.00 | 0.00 | 0.00 | 84 | 1011.0 |
| 20260505022315 | 71 | 192 | 0.0 | 2.0 | 0.00 | 0.00 | 0.00 | 84 | 1011.0 |
| 20260505022215 | 71 | 119 | 0.0 | 2.0 | 0.00 | 0.00 | 0.00 | 84 | 1011.0 |
| 20260505022115 | 71 | 42 | 0.0 | 2.0 | 0.00 | 0.00 | 0.00 | 84 | 1011.0 |
| 20260505022028 | 71 | 142 | 0.0 | 2.0 | 0.00 | 0.00 | 0.00 | 84 | 1011.0 |
| 20260505022015 | 71 | 179 | 0.0 | 2.0 | 0.00 | 0.00 | 0.00 | 84 | 1011.0 |
| 20260505021911 | 71 | 128 | 1.0 | 4.0 | 0.00 | 0.00 | 0.00 | 84 | 1011.0 |
| 20260505021809 | 71 | 0 | 1.0 | 4.0 | 0.00 | 0.00 | 0.00 | 84 | 1011.0 |
| 20260505021706 | 71 | 136 | 1.0 | 4.0 | 0.00 | 0.00 | 0.00 | 83 | 1011.1 |
| 20260505021606 | 71 | 92 | 1.0 | 4.0 | 0.00 | 0.00 | 0.00 | 83 | 1011.0 |
| 20260505021529 | 71 | 0 | 1.0 | 4.0 | 0.00 | 0.00 | 0.00 | 83 | 1011.0 |
| 20260505021507 | 71 | 73 | 1.0 | 4.0 | 0.00 | 0.00 | 0.00 | 83 | 1011.0 |
| 20260505021406 | 71 | 23 | 1.0 | 4.0 | 0.00 | 0.00 | 0.00 | 83 | 1011.0 |
| 20260505021306 | 71 | 89 | 1.0 | 4.0 | 0.00 | 0.00 | 0.00 | 83 | 1011.0 |
| 20260505021206 | 72 | 44 | 1.0 | 4.0 | 0.00 | 0.00 | 0.00 | 83 | 1011.0 |
| 20260505021103 | 72 | 250 | 1.0 | 4.0 | 0.00 | 0.00 | 0.00 | 83 | 1011.0 |
| 20260505021025 | 72 | 220 | 1.0 | 4.0 | 0.00 | 0.00 | 0.00 | 83 | 1011.0 |
| 20260505021000 | 72 | 144 | 1.0 | 4.0 | 0.00 | 0.00 | 0.00 | 83 | 1011.0 |
| 20260505020859 | 72 | 194 | 1.0 | 4.0 | 0.00 | 0.00 | 0.00 | 83 | 1011.0 |
| 20260505020757 | 72 | 278 | 1.0 | 4.0 | 0.00 | 0.00 | 0.00 | 82 | 1010.9 |
| 20260505020657 | 72 | 89 | 1.0 | 4.0 | 0.00 | 0.00 | 0.00 | 82 | 1010.9 |
| 20260505020557 | 72 | 168 | 1.0 | 4.0 | 0.00 | 0.00 | 0.00 | 82 | 1010.9 |
| 20260505020526 | 72 | 115 | 1.0 | 4.0 | 0.00 | 0.00 | 0.00 | 82 | 1010.9 |
| 20260505020454 | 72 | 182 | 1.0 | 4.0 | 0.00 | 0.00 | 0.00 | 82 | 1011.0 |
| 20260505020354 | 72 | 217 | 1.0 | 4.0 | 0.00 | 0.00 | 0.00 | 82 | 1011.0 |
| 20260505020254 | 72 | 170 | 1.0 | 4.0 | 0.00 | 0.00 | 0.00 | 82 | 1010.9 |
| 20260505020151 | 72 | 152 | 1.0 | 4.0 | 0.00 | 0.00 | 0.00 | 82 | 1010.8 |
| 20260505020039 | 72 | 203 | 1.0 | 4.0 | 0.00 | 0.00 | 0.00 | 82 | 1010.8 |
| 20260505020023 | 72 | 289 | 1.0 | 4.0 | 0.00 | 0.00 | 0.00 | 82 | 1010.8 |
| 20260505015936 | 72 | 100 | 1.0 | 7.0 | 0.00 | 0.00 | 0.00 | 82 | 1010.8 |
| 20260505015833 | 72 | 205 | 1.0 | 7.0 | 0.00 | 0.00 | 0.00 | 81 | 1010.7 |
| 20260505015730 | 72 | 94 | 1.0 | 7.0 | 0.00 | 0.00 | 0.00 | 81 | 1010.7 |
| 20260505015631 | 72 | 291 | 1.0 | 7.0 | 0.00 | 0.00 | 0.00 | 81 | 1010.7 |
| 20260505015524 | 72 | 64 | 1.0 | 7.0 | 0.00 | 0.00 | 0.00 | 81 | 1010.7 |
| 20260505015419 | 72 | 187 | 1.0 | 7.0 | 0.00 | 0.00 | 0.00 | 81 | 1010.7 |
| 20260505015316 | 72 | 64 | 1.0 | 7.0 | 0.00 | 0.00 | 0.00 | 81 | 1010.7 |
| 20260505015216 | 72 | 0 | 1.0 | 7.0 | 0.00 | 0.00 | 0.00 | 81 | 1010.7 |
| 20260505015100 | 72 | 141 | 2.0 | 7.0 | 0.00 | 0.00 | 0.00 | 81 | 1010.7 |
| 20260505015023 | 72 | 264 | 2.0 | 7.0 | 0.00 | 0.00 | 0.00 | 81 | 1010.7 |
| 20260505014955 | 72 | 133 | 2.0 | 6.0 | 0.00 | 0.00 | 0.00 | 81 | 1010.7 |
| 20260505014854 | 73 | 92 | 1.0 | 5.0 | 0.00 | 0.00 | 0.00 | 81 | 1010.7 |
| 20260505014751 | 73 | 77 | 1.0 | 5.0 | 0.00 | 0.00 | 0.00 | 81 | 1010.8 |
| 20260505014745 | 73 | 158 | 1.0 | 3.0 | 0.00 | 0.00 | 0.00 | 81 | 1010.8 |
| 20260505014648 | 73 | 185 | 1.0 | 4.0 | 0.00 | 0.00 | 0.00 | 81 | 1010.8 |
| 20260505014629 | 73 | 80 | 1.0 | 3.0 | 0.00 | 0.00 | 0.00 | 81 | 1010.8 |
| 20260505014445 | 73 | 234 | 1.0 | 3.0 | 0.00 | 0.00 | 0.00 | 81 | 1010.8 |
| 20260505014342 | 73 | 172 | 1.0 | 3.0 | 0.00 | 0.00 | 0.00 | 81 | 1010.7 |
| 20260505014242 | 73 | 194 | 1.0 | 3.0 | 0.00 | 0.00 | 0.00 | 81 | 1010.7 |
| 20260505014142 | 73 | 50 | 1.0 | 3.0 | 0.00 | 0.00 | 0.00 | 81 | 1010.7 |
| 20260505014039 | 73 | 320 | 1.0 | 4.0 | 0.00 | 0.00 | 0.00 | 81 | 1010.7 |
| 20260505014020 | 73 | 264 | 1.0 | 4.0 | 0.00 | 0.00 | 0.00 | 81 | 1010.7 |
| 20260505013937 | 73 | 126 | 1.0 | 4.0 | 0.00 | 0.00 | 0.00 | 81 | 1010.8 |
| 20260505013830 | 73 | 156 | 1.0 | 5.0 | 0.00 | 0.00 | 0.00 | 81 | 1010.8 |
| 20260505013725 | 73 | 252 | 1.0 | 5.0 | 0.00 | 0.00 | 0.00 | 81 | 1010.8 |
| 20260505013620 | 73 | 176 | 1.0 | 5.0 | 0.00 | 0.00 | 0.00 | 81 | 1010.8 |
| 20260505013513 | 73 | 285 | 1.0 | 5.0 | 0.00 | 0.00 | 0.00 | 81 | 1010.7 |
| 20260505013409 | 73 | 161 | 1.0 | 5.0 | 0.00 | 0.00 | 0.00 | 80 | 1010.7 |
| 20260505013306 | 73 | 56 | 1.0 | 5.0 | 0.00 | 0.00 | 0.00 | 80 | 1010.7 |
| 20260505013207 | 73 | 59 | 1.0 | 5.0 | 0.00 | 0.00 | 0.00 | 80 | 1010.7 |
| 20260505013106 | 73 | 139 | 1.0 | 5.0 | 0.00 | 0.00 | 0.00 | 80 | 1010.8 |
| 20260505013011 | 73 | 170 | 2.0 | 5.0 | 0.00 | 0.00 | 0.00 | 80 | 1010.8 |
| 20260505013007 | 73 | 174 | 2.0 | 5.0 | 0.00 | 0.00 | 0.00 | 80 | 1010.8 |
| 20260505012906 | 73 | 169 | 1.0 | 5.0 | 0.00 | 0.00 | 0.00 | 80 | 1010.8 |
| 20260505012806 | 73 | 187 | 1.0 | 5.0 | 0.00 | 0.00 | 0.00 | 80 | 1010.9 |
| 20260505012706 | 73 | 227 | 2.0 | 5.0 | 0.00 | 0.00 | 0.00 | 80 | 1010.9 |
| 20260505012606 | 73 | 86 | 1.0 | 5.0 | 0.00 | 0.00 | 0.00 | 80 | 1010.9 |
| 20260505012505 | 73 | 92 | 2.0 | 5.0 | 0.00 | 0.00 | 0.00 | 80 | 1010.9 |
| 20260505012501 | 73 | 114 | 2.0 | 5.0 | 0.00 | 0.00 | 0.00 | 80 | 1010.9 |
| 20260505012400 | 73 | 275 | 2.0 | 5.0 | 0.00 | 0.00 | 0.00 | 80 | 1010.9 |
| 20260505012300 | 73 | 168 | 2.0 | 5.0 | 0.00 | 0.00 | 0.00 | 80 | 1010.9 |
| 20260505012159 | 73 | 156 | 2.0 | 5.0 | 0.00 | 0.00 | 0.00 | 80 | 1010.9 |
| 20260505012059 | 73 | 95 | 2.0 | 4.0 | 0.00 | 0.00 | 0.00 | 80 | 1010.9 |
| 20260505012005 | 73 | 160 | 2.0 | 4.0 | 0.00 | 0.00 | 0.00 | 80 | 1010.9 |
| 20260505011959 | 73 | 262 | 2.0 | 4.0 | 0.00 | 0.00 | 0.00 | 80 | 1010.9 |
| 20260505011859 | 73 | 239 | 2.0 | 4.0 | 0.00 | 0.00 | 0.00 | 80 | 1010.9 |
| 20260505011755 | 73 | 89 | 2.0 | 4.0 | 0.00 | 0.00 | 0.00 | 80 | 1010.9 |
| 20260505011652 | 73 | 204 | 2.0 | 4.0 | 0.00 | 0.00 | 0.00 | 80 | 1010.9 |
| 20260505011549 | 73 | 168 | 2.0 | 4.0 | 0.00 | 0.00 | 0.00 | 80 | 1010.8 |
| 20260505011457 | 73 | 149 | 2.0 | 4.0 | 0.00 | 0.00 | 0.00 | 80 | 1010.7 |
| 20260505011446 | 73 | 203 | 2.0 | 5.0 | 0.00 | 0.00 | 0.00 | 80 | 1010.7 |
| 20260505011343 | 73 | 186 | 2.0 | 5.0 | 0.00 | 0.00 | 0.00 | 80 | 1010.7 |
| 20260505011240 | 73 | 53 | 2.0 | 5.0 | 0.00 | 0.00 | 0.00 | 79 | 1010.7 |
| 20260505011140 | 73 | 346 | 2.0 | 5.0 | 0.00 | 0.00 | 0.00 | 79 | 1010.7 |
| 20260505011037 | 73 | 81 | 2.0 | 5.0 | 0.00 | 0.00 | 0.00 | 79 | 1010.6 |
| 20260505010958 | 73 | 137 | 2.0 | 5.0 | 0.00 | 0.00 | 0.00 | 79 | 1010.6 |
| 20260505010937 | 73 | 113 | 2.0 | 5.0 | 0.00 | 0.00 | 0.00 | 79 | 1010.6 |
| 20260505010837 | 73 | 209 | 2.0 | 5.0 | 0.00 | 0.00 | 0.00 | 79 | 1010.7 |
| 20260505010733 | 73 | 188 | 2.0 | 5.0 | 0.00 | 0.00 | 0.00 | 79 | 1010.7 |
| 20260505010630 | 73 | 0 | 2.0 | 5.0 | 0.00 | 0.00 | 0.00 | 79 | 1010.7 |
| 20260505010528 | 73 | 182 | 2.0 | 5.0 | 0.00 | 0.00 | 0.00 | 79 | 1010.7 |
| 20260505010455 | 73 | 93 | 2.0 | 5.0 | 0.00 | 0.00 | 0.00 | 79 | 1010.8 |
| 20260505010422 | 73 | 193 | 2.0 | 5.0 | 0.00 | 0.00 | 0.00 | 79 | 1010.8 |
| 20260505010310 | 73 | 175 | 2.0 | 5.0 | 0.00 | 0.00 | 0.00 | 79 | 1010.8 |
| 20260505010210 | 73 | 141 | 2.0 | 4.0 | 0.00 | 0.00 | 0.00 | 79 | 1010.8 |
| 20260505010107 | 73 | 286 | 2.0 | 5.0 | 0.00 | 0.00 | 0.00 | 79 | 1010.8 |
| 20260505010004 | 74 | 203 | 2.0 | 5.0 | 0.00 | 0.00 | 0.00 | 79 | 1010.8 |
| 20260505005951 | 74 | 8 | 2.0 | 5.0 | 0.00 | 0.00 | 0.00 | 79 | 1010.8 |
| 20260505005904 | 74 | 169 | 2.0 | 5.0 | 0.00 | 0.00 | 0.00 | 79 | 1010.8 |
| 20260505005801 | 74 | 174 | 2.0 | 5.0 | 0.00 | 0.00 | 0.00 | 79 | 1010.8 |
| 20260505005702 | 74 | 113 | 2.0 | 5.0 | 0.00 | 0.00 | 0.00 | 79 | 1010.7 |
| 20260505005600 | 74 | 103 | 2.0 | 5.0 | 0.00 | 0.00 | 0.00 | 79 | 1010.7 |
| 20260505005450 | 74 | 194 | 2.0 | 5.0 | 0.00 | 0.00 | 0.00 | 79 | 1010.7 |
| 20260505005359 | 74 | 200 | 2.0 | 5.0 | 0.00 | 0.00 | 0.00 | 79 | 1010.8 |
| 20260505005259 | 74 | 184 | 2.0 | 5.0 | 0.00 | 0.00 | 0.00 | 79 | 1010.8 |
| 20260505005155 | 74 | 138 | 2.0 | 5.0 | 0.00 | 0.00 | 0.00 | 78 | 1010.7 |
| 20260505005055 | 74 | 186 | 2.0 | 5.0 | 0.00 | 0.00 | 0.00 | 78 | 1010.7 |
| 20260505004957 | 74 | 145 | 2.0 | 5.0 | 0.00 | 0.00 | 0.00 | 78 | 1010.7 |
| 20260505004951 | 74 | 111 | 2.0 | 5.0 | 0.00 | 0.00 | 0.00 | 78 | 1010.7 |
| 20260505004856 | 74 | 172 | 2.0 | 5.0 | 0.00 | 0.00 | 0.00 | 78 | 1010.7 |
| 20260505004755 | 74 | 80 | 2.0 | 5.0 | 0.00 | 0.00 | 0.00 | 78 | 1010.7 |
| 20260505004655 | 74 | 62 | 2.0 | 5.0 | 0.00 | 0.00 | 0.00 | 78 | 1010.7 |
| 20260505004555 | 74 | 201 | 2.0 | 5.0 | 0.00 | 0.00 | 0.00 | 78 | 1010.7 |
| 20260505004456 | 74 | 196 | 2.0 | 5.0 | 0.00 | 0.00 | 0.00 | 78 | 1010.6 |
| 20260505004450 | 74 | 179 | 2.0 | 5.0 | 0.00 | 0.00 | 0.00 | 78 | 1010.6 |
| 20260505004355 | 74 | 64 | 2.0 | 5.0 | 0.00 | 0.00 | 0.00 | 78 | 1010.6 |
| 20260505004255 | 74 | 0 | 2.0 | 5.0 | 0.00 | 0.00 | 0.00 | 78 | 1010.6 |
| 20260505004155 | 74 | 185 | 2.0 | 5.0 | 0.00 | 0.00 | 0.00 | 78 | 1010.6 |
| 20260505004046 | 74 | 142 | 2.0 | 5.0 | 0.00 | 0.00 | 0.00 | 78 | 1010.5 |
| 20260505003951 | 74 | 201 | 2.0 | 5.0 | 0.00 | 0.00 | 0.00 | 78 | 1010.5 |
| 20260505003946 | 74 | 184 | 2.0 | 5.0 | 0.00 | 0.00 | 0.00 | 78 | 1010.5 |
| 20260505003846 | 74 | 127 | 2.0 | 5.0 | 0.00 | 0.00 | 0.00 | 78 | 1010.5 |
| 20260505003743 | 74 | 93 | 2.0 | 5.0 | 0.00 | 0.00 | 0.00 | 78 | 1010.5 |
| 20260505003643 | 74 | 241 | 2.0 | 6.0 | 0.00 | 0.00 | 0.00 | 78 | 1010.5 |
| 20260505003543 | 74 | 158 | 2.0 | 6.0 | 0.00 | 0.00 | 0.00 | 78 | 1010.5 |
| 20260505003452 | 74 | 158 | 2.0 | 6.0 | 0.00 | 0.00 | 0.00 | 78 | 1010.5 |
| 20260505003443 | 74 | 174 | 2.0 | 6.0 | 0.00 | 0.00 | 0.00 | 78 | 1010.5 |
| 20260505003344 | 74 | 100 | 2.0 | 6.0 | 0.00 | 0.00 | 0.00 | 78 | 1010.5 |
| 20260505003237 | 74 | 179 | 2.0 | 6.0 | 0.00 | 0.00 | 0.00 | 77 | 1010.4 |
| 20260505003135 | 74 | 116 | 2.0 | 6.0 | 0.00 | 0.00 | 0.00 | 77 | 1010.4 |
| 20260505003035 | 74 | 95 | 2.0 | 6.0 | 0.00 | 0.00 | 0.00 | 77 | 1010.4 |
| 20260505002950 | 74 | 106 | 2.0 | 6.0 | 0.00 | 0.00 | 0.00 | 77 | 1010.4 |
| 20260505002934 | 74 | 194 | 2.0 | 6.0 | 0.00 | 0.00 | 0.00 | 77 | 1010.4 |
| 20260505002835 | 74 | 184 | 2.0 | 6.0 | 0.00 | 0.00 | 0.00 | 77 | 1010.5 |
| 20260505002734 | 74 | 48 | 2.0 | 6.0 | 0.00 | 0.00 | 0.00 | 77 | 1010.5 |
| 20260505002704 | 74 | 124 | 2.0 | 8.0 | 0.00 | 0.00 | 0.00 | 77 | 1010.5 |
| 20260505002629 | 74 | 170 | 2.0 | 6.0 | 0.00 | 0.00 | 0.00 | 77 | 1010.5 |
| 20260505002604 | 74 | 227 | 2.0 | 6.0 | 0.00 | 0.00 | 0.00 | 77 | 1010.5 |
| 20260505002425 | 74 | 112 | 2.0 | 8.0 | 0.00 | 0.00 | 0.00 | 77 | 1010.5 |
| 20260505002325 | 74 | 156 | 2.0 | 8.0 | 0.00 | 0.00 | 0.00 | 77 | 1010.5 |
| 20260505002226 | 75 | 152 | 2.0 | 8.0 | 0.00 | 0.00 | 0.00 | 77 | 1010.6 |
| 20260505002126 | 75 | 175 | 2.0 | 8.0 | 0.00 | 0.00 | 0.00 | 77 | 1010.6 |
| 20260505002026 | 75 | 129 | 2.0 | 8.0 | 0.00 | 0.00 | 0.00 | 77 | 1010.5 |
| 20260505001945 | 75 | 126 | 2.0 | 8.0 | 0.00 | 0.00 | 0.00 | 77 | 1010.5 |
| 20260505001925 | 75 | 174 | 2.0 | 8.0 | 0.00 | 0.00 | 0.00 | 77 | 1010.5 |
| 20260505001825 | 75 | 179 | 2.0 | 8.0 | 0.00 | 0.00 | 0.00 | 77 | 1010.5 |
| 20260505001725 | 75 | 0 | 2.0 | 8.0 | 0.00 | 0.00 | 0.00 | 76 | 1010.5 |
| 20260505001625 | 75 | 184 | 2.0 | 8.0 | 0.00 | 0.00 | 0.00 | 76 | 1010.5 |
| 20260505001520 | 75 | 100 | 2.0 | 8.0 | 0.00 | 0.00 | 0.00 | 76 | 1010.5 |
| 20260505001446 | 75 | 115 | 2.0 | 7.0 | 0.00 | 0.00 | 0.00 | 76 | 1010.5 |
| 20260505001420 | 75 | 155 | 2.0 | 7.0 | 0.00 | 0.00 | 0.00 | 76 | 1010.5 |
| 20260505001320 | 75 | 97 | 2.0 | 7.0 | 0.00 | 0.00 | 0.00 | 76 | 1010.5 |
| 20260505001220 | 75 | 93 | 2.0 | 7.0 | 0.00 | 0.00 | 0.00 | 76 | 1010.5 |
| 20260505001120 | 75 | 136 | 2.0 | 7.0 | 0.00 | 0.00 | 0.00 | 75 | 1010.6 |
| 20260505001017 | 75 | 201 | 2.0 | 7.0 | 0.00 | 0.00 | 0.00 | 75 | 1010.6 |
| 20260505000946 | 75 | 152 | 2.0 | 7.0 | 0.00 | 0.00 | 0.00 | 75 | 1010.7 |
| 20260505000917 | 75 | 120 | 2.0 | 7.0 | 0.00 | 0.00 | 0.00 | 75 | 1010.7 |
| 20260505000808 | 75 | 109 | 2.0 | 7.0 | 0.00 | 0.00 | 0.00 | 75 | 1010.7 |
| 20260505000708 | 75 | 179 | 2.0 | 7.0 | 0.00 | 0.00 | 0.00 | 75 | 1010.8 |
| 20260505000608 | 75 | 197 | 2.0 | 7.0 | 0.00 | 0.00 | 0.00 | 75 | 1010.8 |
| 20260505000508 | 75 | 134 | 2.0 | 7.0 | 0.00 | 0.00 | 0.00 | 75 | 1010.8 |
| 20260505000442 | 75 | 246 | 2.0 | 7.0 | 0.00 | 0.00 | 0.00 | 75 | 1010.8 |
| 20260505000407 | 75 | 159 | 3.0 | 7.0 | 0.00 | 0.00 | 0.00 | 75 | 1010.8 |
| 20260505000307 | 75 | 124 | 3.0 | 7.0 | 0.00 | 0.00 | 0.00 | 75 | 1010.8 |
| 20260505000205 | 75 | 238 | 3.0 | 7.0 | 0.00 | 0.00 | 0.00 | 75 | 1010.8 |
| 20260505000002 | 76 | 92 | 2.0 | 7.0 | 0.00 | 0.00 | 0.00 | 75 | 1010.9 |
| 20260504235939 | 76 | 145 | 3.0 | 7.0 | 0.00 | 0.00 | 0.00 | 75 | 1010.9 |
| 20260504235859 | 76 | 197 | 3.0 | 7.0 | 0.00 | 0.00 | 0.00 | 75 | 1010.9 |
| 20260504235759 | 76 | 124 | 3.0 | 7.0 | 0.00 | 0.00 | 0.00 | 75 | 1010.8 |
| 20260504235657 | 76 | 59 | 3.0 | 7.0 | 0.00 | 0.00 | 0.00 | 74 | 1010.7 |
| 20260504235552 | 76 | 146 | 3.0 | 7.0 | 0.00 | 0.00 | 0.00 | 74 | 1010.7 |
| 20260504235447 | 76 | 111 | 3.0 | 7.0 | 0.00 | 0.00 | 0.00 | 74 | 1010.7 |
| 20260504235439 | 76 | 85 | 2.0 | 7.0 | 0.00 | 0.00 | 0.00 | 74 | 1010.7 |
| 20260504235347 | 76 | 180 | 3.0 | 7.0 | 0.00 | 0.00 | 0.00 | 74 | 1010.7 |
| 20260504235247 | 76 | 178 | 3.0 | 7.0 | 0.00 | 0.00 | 0.00 | 74 | 1010.7 |
| 20260504235147 | 76 | 139 | 3.0 | 7.0 | 0.00 | 0.00 | 0.00 | 74 | 1010.7 |
| 20260504235047 | 76 | 185 | 3.0 | 7.0 | 0.00 | 0.00 | 0.00 | 74 | 1010.7 |
| 20260504234944 | 76 | 199 | 3.0 | 7.0 | 0.00 | 0.00 | 0.00 | 74 | 1010.6 |
| 20260504234936 | 76 | 119 | 3.0 | 7.0 | 0.00 | 0.00 | 0.00 | 74 | 1010.6 |
| 20260504234841 | 76 | 92 | 2.0 | 7.0 | 0.00 | 0.00 | 0.00 | 74 | 1010.7 |
| 20260504234741 | 76 | 200 | 2.0 | 7.0 | 0.00 | 0.00 | 0.00 | 74 | 1010.7 |
| 20260504234658 | 76 | 129 | 2.0 | 7.0 | 0.00 | 0.00 | 0.00 | 74 | 1010.7 |
| 20260504234638 | 76 | 96 | 2.0 | 7.0 | 0.00 | 0.00 | 0.00 | 74 | 1010.7 |
| 20260504234545 | 76 | 175 | 2.0 | 7.0 | 0.00 | 0.00 | 0.00 | 74 | 1010.7 |
| 20260504234435 | 76 | 149 | 2.0 | 7.0 | 0.00 | 0.00 | 0.00 | 74 | 1010.7 |
| 20260504234332 | 76 | 215 | 2.0 | 7.0 | 0.00 | 0.00 | 0.00 | 74 | 1010.7 |
| 20260504234229 | 76 | 98 | 2.0 | 7.0 | 0.00 | 0.00 | 0.00 | 74 | 1010.7 |
| 20260504234129 | 76 | 140 | 2.0 | 8.0 | 0.00 | 0.00 | 0.00 | 74 | 1010.8 |
| 20260504234029 | 76 | 177 | 2.0 | 8.0 | 0.00 | 0.00 | 0.00 | 74 | 1010.8 |
| 20260504233936 | 76 | 77 | 3.0 | 8.0 | 0.00 | 0.00 | 0.00 | 74 | 1010.8 |
| 20260504233926 | 76 | 169 | 3.0 | 8.0 | 0.00 | 0.00 | 0.00 | 74 | 1010.8 |
| 20260504233826 | 76 | 126 | 3.0 | 8.0 | 0.00 | 0.00 | 0.00 | 74 | 1010.9 |
| 20260504233726 | 76 | 283 | 3.0 | 8.0 | 0.00 | 0.00 | 0.00 | 74 | 1010.9 |
| 20260504233626 | 76 | 196 | 3.0 | 8.0 | 0.00 | 0.00 | 0.00 | 74 | 1010.9 |
| 20260504233526 | 76 | 202 | 3.0 | 11.0 | 0.00 | 0.00 | 0.00 | 74 | 1011.0 |
| 20260504233436 | 76 | 124 | 3.0 | 11.0 | 0.00 | 0.00 | 0.00 | 74 | 1010.9 |
| 20260504233426 | 76 | 97 | 3.0 | 11.0 | 0.00 | 0.00 | 0.00 | 74 | 1010.9 |
| 20260504233326 | 76 | 50 | 3.0 | 11.0 | 0.00 | 0.00 | 0.00 | 73 | 1010.9 |
| 20260504233220 | 76 | 127 | 3.0 | 11.0 | 0.00 | 0.00 | 0.00 | 73 | 1010.9 |
| 20260504233118 | 77 | 107 | 3.0 | 11.0 | 0.00 | 0.00 | 0.00 | 73 | 1010.9 |
| 20260504233016 | 77 | 183 | 3.0 | 11.0 | 0.00 | 0.00 | 0.00 | 73 | 1010.9 |
| 20260504232937 | 77 | 184 | 3.0 | 11.0 | 0.00 | 0.00 | 0.00 | 73 | 1010.9 |
| 20260504232914 | 77 | 212 | 3.0 | 11.0 | 0.00 | 0.00 | 0.00 | 73 | 1010.9 |
| 20260504232814 | 77 | 153 | 3.0 | 11.0 | 0.00 | 0.00 | 0.00 | 73 | 1010.9 |
| 20260504232711 | 77 | 98 | 3.0 | 11.0 | 0.00 | 0.00 | 0.00 | 73 | 1010.9 |
| 20260504232611 | 77 | 96 | 3.0 | 11.0 | 0.00 | 0.00 | 0.00 | 73 | 1010.9 |
| 20260504232511 | 77 | 120 | 3.0 | 10.0 | 0.00 | 0.00 | 0.00 | 73 | 1011.0 |
| 20260504232437 | 77 | 170 | 3.0 | 10.0 | 0.00 | 0.00 | 0.00 | 73 | 1011.0 |
| 20260504232408 | 77 | 149 | 3.0 | 10.0 | 0.00 | 0.00 | 0.00 | 73 | 1011.0 |
| 20260504232308 | 77 | 128 | 3.0 | 10.0 | 0.00 | 0.00 | 0.00 | 73 | 1011.0 |
| 20260504232208 | 77 | 213 | 3.0 | 10.0 | 0.00 | 0.00 | 0.00 | 73 | 1011.0 |
| 20260504232106 | 77 | 34 | 3.0 | 10.0 | 0.00 | 0.00 | 0.00 | 73 | 1011.0 |
| 20260504232005 | 77 | 132 | 3.0 | 10.0 | 0.00 | 0.00 | 0.00 | 73 | 1011.0 |
| 20260504231937 | 77 | 80 | 3.0 | 10.0 | 0.00 | 0.00 | 0.00 | 73 | 1011.0 |
| 20260504231900 | 77 | 148 | 3.0 | 10.0 | 0.00 | 0.00 | 0.00 | 73 | 1011.0 |
| 20260504231759 | 77 | 77 | 3.0 | 10.0 | 0.00 | 0.00 | 0.00 | 73 | 1011.0 |
| 20260504231705 | 77 | 159 | 3.0 | 10.0 | 0.00 | 0.00 | 0.00 | 73 | 1011.0 |
| 20260504231700 | 77 | 122 | 3.0 | 10.0 | 0.00 | 0.00 | 0.00 | 73 | 1011.0 |
| 20260504231557 | 77 | 101 | 3.0 | 10.0 | 0.00 | 0.00 | 0.00 | 73 | 1011.0 |
| 20260504231543 | 77 | 93 | 3.0 | 10.0 | 0.00 | 0.00 | 0.00 | 73 | 1011.0 |
| 20260504231354 | 77 | 158 | 3.0 | 10.0 | 0.00 | 0.00 | 0.00 | 73 | 1011.0 |
| 20260504231253 | 77 | 88 | 3.0 | 10.0 | 0.00 | 0.00 | 0.00 | 73 | 1011.1 |
| 20260504231153 | 77 | 183 | 3.0 | 10.0 | 0.00 | 0.00 | 0.00 | 73 | 1011.1 |
| 20260504231048 | 76 | 142 | 3.0 | 10.0 | 0.00 | 0.00 | 0.00 | 74 | 1011.1 |
| 20260504230947 | 76 | 98 | 3.0 | 8.0 | 0.00 | 0.00 | 0.00 | 74 | 1011.1 |
| 20260504230937 | 76 | 157 | 3.0 | 8.0 | 0.00 | 0.00 | 0.00 | 74 | 1011.1 |
| 20260504230847 | 76 | 117 | 3.0 | 8.0 | 0.00 | 0.00 | 0.00 | 74 | 1011.1 |
| 20260504230748 | 76 | 27 | 3.0 | 8.0 | 0.00 | 0.00 | 0.00 | 74 | 1011.1 |
| 20260504230648 | 76 | 183 | 3.0 | 8.0 | 0.00 | 0.00 | 0.00 | 74 | 1011.2 |
| 20260504230539 | 76 | 205 | 3.0 | 8.0 | 0.00 | 0.00 | 0.00 | 74 | 1011.2 |
| 20260504230439 | 76 | 88 | 3.0 | 8.0 | 0.00 | 0.00 | 0.00 | 74 | 1011.2 |
| 20260504230338 | 76 | 206 | 3.0 | 8.0 | 0.00 | 0.00 | 0.00 | 74 | 1011.2 |
| 20260504230238 | 76 | 87 | 3.0 | 8.0 | 0.00 | 0.00 | 0.00 | 73 | 1011.3 |
| 20260504230138 | 76 | 137 | 3.0 | 8.0 | 0.00 | 0.00 | 0.00 | 73 | 1011.3 |
| 20260504230039 | 76 | 131 | 3.0 | 8.0 | 0.00 | 0.00 | 0.00 | 73 | 1011.3 |
| 20260504225939 | 76 | 148 | 3.0 | 8.0 | 0.00 | 0.00 | 0.00 | 73 | 1011.3 |
| 20260504225839 | 76 | 103 | 3.0 | 8.0 | 0.00 | 0.00 | 0.00 | 73 | 1011.3 |
| 20260504225739 | 76 | 181 | 3.0 | 8.0 | 0.00 | 0.00 | 0.00 | 74 | 1011.2 |
| 20260504225638 | 76 | 34 | 3.0 | 8.0 | 0.00 | 0.00 | 0.00 | 74 | 1011.2 |
| 20260504225538 | 76 | 78 | 3.0 | 8.0 | 0.00 | 0.00 | 0.00 | 74 | 1011.2 |
| 20260504225439 | 77 | 120 | 3.0 | 8.0 | 0.00 | 0.00 | 0.00 | 74 | 1011.2 |
| 20260504225335 | 77 | 63 | 3.0 | 8.0 | 0.00 | 0.00 | 0.00 | 74 | 1011.2 |
| 20260504225232 | 77 | 97 | 3.0 | 9.0 | 0.00 | 0.00 | 0.00 | 73 | 1011.2 |
| 20260504225130 | 77 | 185 | 3.0 | 9.0 | 0.00 | 0.00 | 0.00 | 73 | 1011.2 |
| 20260504225030 | 77 | 115 | 3.0 | 9.0 | 0.00 | 0.00 | 0.00 | 73 | 1011.2 |
| 20260504224937 | 77 | 59 | 3.0 | 9.0 | 0.00 | 0.00 | 0.00 | 73 | 1011.2 |
| 20260504224930 | 77 | 296 | 3.0 | 9.0 | 0.00 | 0.00 | 0.00 | 73 | 1011.2 |
| 20260504224830 | 77 | 92 | 3.0 | 9.0 | 0.00 | 0.00 | 0.00 | 73 | 1011.2 |
| 20260504224726 | 77 | 77 | 3.0 | 9.0 | 0.00 | 0.00 | 0.00 | 73 | 1011.3 |
| 20260504224703 | 78 | 161 | 3.0 | 9.0 | 0.00 | 0.00 | 0.00 | 72 | 1011.3 |
| 20260504224623 | 77 | 243 | 3.0 | 9.0 | 0.00 | 0.00 | 0.00 | 73 | 1011.3 |
| 20260504224544 | 78 | 147 | 3.0 | 9.0 | 0.00 | 0.00 | 0.00 | 73 | 1011.3 |
| 20260504224421 | 78 | 99 | 2.0 | 9.0 | 0.00 | 0.00 | 0.00 | 72 | 1011.3 |
| 20260504224318 | 78 | 104 | 2.0 | 9.0 | 0.00 | 0.00 | 0.00 | 72 | 1011.2 |
| 20260504224214 | 78 | 190 | 2.0 | 7.0 | 0.00 | 0.00 | 0.00 | 72 | 1011.2 |
| 20260504224115 | 78 | 153 | 2.0 | 7.0 | 0.00 | 0.00 | 0.00 | 72 | 1011.3 |
| 20260504224015 | 78 | 162 | 2.0 | 7.0 | 0.00 | 0.00 | 0.00 | 72 | 1011.3 |
| 20260504223931 | 78 | 208 | 2.0 | 7.0 | 0.00 | 0.00 | 0.00 | 71 | 1011.3 |
| 20260504223914 | 78 | 140 | 2.0 | 7.0 | 0.00 | 0.00 | 0.00 | 71 | 1011.3 |
| 20260504223814 | 78 | 89 | 2.0 | 5.0 | 0.00 | 0.00 | 0.00 | 71 | 1011.3 |
| 20260504223715 | 78 | 193 | 2.0 | 8.0 | 0.00 | 0.00 | 0.00 | 71 | 1011.4 |
| 20260504223615 | 78 | 303 | 2.0 | 8.0 | 0.00 | 0.00 | 0.00 | 71 | 1011.4 |
| 20260504223515 | 78 | 187 | 2.0 | 8.0 | 0.00 | 0.00 | 0.00 | 71 | 1011.4 |
| 20260504223432 | 78 | 88 | 2.0 | 8.0 | 0.00 | 0.00 | 0.00 | 71 | 1011.4 |
| 20260504223415 | 78 | 258 | 2.0 | 8.0 | 0.00 | 0.00 | 0.00 | 71 | 1011.4 |
| 20260504223309 | 78 | 88 | 2.0 | 8.0 | 0.00 | 0.00 | 0.00 | 71 | 1011.4 |
| 20260504223209 | 78 | 176 | 2.0 | 8.0 | 0.00 | 0.00 | 0.00 | 72 | 1011.4 |
| 20260504223103 | 78 | 252 | 2.0 | 8.0 | 0.00 | 0.00 | 0.00 | 72 | 1011.5 |
| 20260504223003 | 77 | 323 | 2.0 | 8.0 | 0.00 | 0.00 | 0.00 | 71 | 1011.5 |
| 20260504222931 | 77 | 126 | 2.0 | 9.0 | 0.00 | 0.00 | 0.00 | 71 | 1011.5 |
| 20260504222900 | 77 | 269 | 2.0 | 9.0 | 0.00 | 0.00 | 0.00 | 71 | 1011.5 |
| 20260504222758 | 77 | 211 | 2.0 | 9.0 | 0.00 | 0.00 | 0.00 | 73 | 1011.6 |
| 20260504222703 | 77 | 146 | 2.0 | 9.0 | 0.00 | 0.00 | 0.00 | 72 | 1011.6 |
| 20260504222656 | 77 | 45 | 2.0 | 9.0 | 0.00 | 0.00 | 0.00 | 72 | 1011.6 |
| 20260504222557 | 77 | 130 | 2.0 | 9.0 | 0.00 | 0.00 | 0.00 | 72 | 1011.6 |
| 20260504222537 | 77 | 165 | 2.0 | 9.0 | 0.00 | 0.00 | 0.00 | 72 | 1011.6 |
| 20260504222351 | 77 | 161 | 2.0 | 9.0 | 0.00 | 0.00 | 0.00 | 72 | 1011.6 |
| 20260504222251 | 77 | 151 | 2.0 | 9.0 | 0.00 | 0.00 | 0.00 | 72 | 1011.6 |
| 20260504222148 | 77 | 197 | 2.0 | 9.0 | 0.00 | 0.00 | 0.00 | 73 | 1011.7 |
| 20260504222045 | 77 | 121 | 2.0 | 9.0 | 0.00 | 0.00 | 0.00 | 73 | 1011.7 |
| 20260504221943 | 77 | 80 | 2.0 | 9.0 | 0.00 | 0.00 | 0.00 | 73 | 1011.7 |
| 20260504221928 | 77 | 102 | 2.0 | 7.0 | 0.00 | 0.00 | 0.00 | 73 | 1011.7 |
| 20260504221839 | 77 | 141 | 2.0 | 7.0 | 0.00 | 0.00 | 0.00 | 72 | 1011.7 |
| 20260504221739 | 77 | 182 | 3.0 | 7.0 | 0.00 | 0.00 | 0.00 | 72 | 1011.8 |
| 20260504221630 | 77 | 103 | 3.0 | 7.0 | 0.00 | 0.00 | 0.00 | 72 | 1011.8 |
| 20260504221527 | 77 | 103 | 3.0 | 6.0 | 0.00 | 0.00 | 0.00 | 73 | 1011.8 |
| 20260504221431 | 77 | 94 | 3.0 | 6.0 | 0.00 | 0.00 | 0.00 | 73 | 1011.8 |
| 20260504221427 | 77 | 108 | 3.0 | 6.0 | 0.00 | 0.00 | 0.00 | 73 | 1011.8 |
| 20260504221327 | 77 | 170 | 3.0 | 6.0 | 0.00 | 0.00 | 0.00 | 73 | 1011.8 |
| 20260504221227 | 77 | 151 | 3.0 | 7.0 | 0.00 | 0.00 | 0.00 | 73 | 1011.8 |
| 20260504221127 | 77 | 202 | 3.0 | 7.0 | 0.00 | 0.00 | 0.00 | 73 | 1011.7 |
| 20260504221027 | 77 | 143 | 3.0 | 8.0 | 0.00 | 0.00 | 0.00 | 72 | 1011.7 |
| 20260504220929 | 77 | 129 | 3.0 | 8.0 | 0.00 | 0.00 | 0.00 | 72 | 1011.7 |
| 20260504220924 | 77 | 180 | 3.0 | 8.0 | 0.00 | 0.00 | 0.00 | 72 | 1011.7 |
| 20260504220818 | 77 | 189 | 3.0 | 8.0 | 0.00 | 0.00 | 0.00 | 72 | 1011.7 |
| 20260504220718 | 77 | 161 | 3.0 | 8.0 | 0.00 | 0.00 | 0.00 | 72 | 1011.7 |
| 20260504220619 | 77 | 89 | 3.0 | 8.0 | 0.00 | 0.00 | 0.00 | 72 | 1011.7 |
| 20260504220518 | 77 | 181 | 3.0 | 8.0 | 0.00 | 0.00 | 0.00 | 72 | 1011.7 |
| 20260504220427 | 77 | 322 | 3.0 | 8.0 | 0.00 | 0.00 | 0.00 | 72 | 1011.7 |
| 20260504220409 | 77 | 190 | 3.0 | 8.0 | 0.00 | 0.00 | 0.00 | 72 | 1011.7 |
| 20260504220306 | 77 | 197 | 3.0 | 8.0 | 0.00 | 0.00 | 0.00 | 71 | 1011.7 |
| 20260504220206 | 77 | 93 | 3.0 | 8.0 | 0.00 | 0.00 | 0.00 | 71 | 1011.7 |
| 20260504220106 | 77 | 150 | 3.0 | 9.0 | 0.00 | 0.00 | 0.00 | 71 | 1011.7 |
| 20260504220006 | 77 | 118 | 3.0 | 9.0 | 0.00 | 0.00 | 0.00 | 72 | 1011.7 |
| 20260504215926 | 77 | 189 | 3.0 | 9.0 | 0.00 | 0.00 | 0.00 | 72 | 1011.7 |
| 20260504215908 | 77 | 96 | 3.0 | 9.0 | 0.00 | 0.00 | 0.00 | 72 | 1011.7 |
| 20260504215803 | 77 | 101 | 3.0 | 9.0 | 0.00 | 0.00 | 0.00 | 72 | 1011.7 |
| 20260504215703 | 77 | 152 | 3.0 | 9.0 | 0.00 | 0.00 | 0.00 | 72 | 1011.7 |
| 20260504215604 | 77 | 205 | 3.0 | 9.0 | 0.00 | 0.00 | 0.00 | 72 | 1011.7 |
| 20260504215502 | 77 | 152 | 3.0 | 9.0 | 0.00 | 0.00 | 0.00 | 72 | 1011.7 |
| 20260504215427 | 77 | 199 | 3.0 | 9.0 | 0.00 | 0.00 | 0.00 | 72 | 1011.7 |
| 20260504215401 | 77 | 90 | 3.0 | 9.0 | 0.00 | 0.00 | 0.00 | 72 | 1011.7 |
| 20260504215301 | 77 | 188 | 3.0 | 9.0 | 0.00 | 0.00 | 0.00 | 72 | 1011.7 |
| 20260504215200 | 77 | 73 | 3.0 | 9.0 | 0.00 | 0.00 | 0.00 | 72 | 1011.7 |
| 20260504215100 | 77 | 167 | 3.0 | 9.0 | 0.00 | 0.00 | 0.00 | 71 | 1011.7 |
| 20260504215000 | 77 | 119 | 3.0 | 9.0 | 0.00 | 0.00 | 0.00 | 72 | 1011.7 |
| 20260504214928 | 77 | 45 | 3.0 | 9.0 | 0.00 | 0.00 | 0.00 | 72 | 1011.7 |
| 20260504214924 | 77 | 109 | 3.0 | 9.0 | 0.00 | 0.00 | 0.00 | 72 | 1011.9 |
| 20260504214901 | 77 | 241 | 3.0 | 9.0 | 0.00 | 0.00 | 0.00 | 72 | 1011.8 |
| 20260504214803 | 77 | 104 | 3.0 | 9.0 | 0.00 | 0.00 | 0.00 | 72 | 1011.7 |
| 20260504214758 | 77 | 199 | 3.0 | 9.0 | 0.00 | 0.00 | 0.00 | 72 | 1011.8 |
| 20260504214600 | 77 | 86 | 3.0 | 9.0 | 0.00 | 0.00 | 0.00 | 72 | 1011.9 |
| 20260504214532 | 77 | 213 | 3.0 | 9.0 | 0.00 | 0.00 | 0.00 | 72 | 1011.9 |
| 20260504214357 | 77 | 115 | 3.0 | 9.0 | 0.00 | 0.00 | 0.00 | 72 | 1011.9 |
| 20260504214255 | 77 | 205 | 3.0 | 9.0 | 0.00 | 0.00 | 0.00 | 71 | 1012.0 |
| 20260504214155 | 77 | 177 | 3.0 | 9.0 | 0.00 | 0.00 | 0.00 | 71 | 1012.0 |
| 20260504214055 | 77 | 145 | 3.0 | 9.0 | 0.00 | 0.00 | 0.00 | 71 | 1012.0 |
| 20260504213955 | 77 | 82 | 3.0 | 9.0 | 0.00 | 0.00 | 0.00 | 71 | 1012.1 |
| 20260504213927 | 77 | 173 | 3.0 | 9.0 | 0.00 | 0.00 | 0.00 | 71 | 1012.1 |
| 20260504213854 | 77 | 98 | 3.0 | 9.0 | 0.00 | 0.00 | 0.00 | 71 | 1012.1 |
| 20260504213754 | 77 | 93 | 3.0 | 9.0 | 0.00 | 0.00 | 0.00 | 71 | 1012.1 |
| 20260504213654 | 77 | 216 | 3.0 | 9.0 | 0.00 | 0.00 | 0.00 | 71 | 1012.1 |
| 20260504213555 | 77 | 297 | 3.0 | 9.0 | 0.00 | 0.00 | 0.00 | 71 | 1012.1 |
| 20260504213454 | 77 | 171 | 3.0 | 7.0 | 0.00 | 0.00 | 0.00 | 71 | 1012.1 |
| 20260504213423 | 77 | 123 | 3.0 | 7.0 | 0.00 | 0.00 | 0.00 | 71 | 1012.1 |
| 20260504213352 | 77 | 187 | 3.0 | 6.0 | 0.00 | 0.00 | 0.00 | 71 | 1012.1 |
| 20260504213249 | 77 | 188 | 3.0 | 6.0 | 0.00 | 0.00 | 0.00 | 71 | 1012.1 |
| 20260504213151 | 77 | 106 | 3.0 | 7.0 | 0.00 | 0.00 | 0.00 | 71 | 1012.0 |
| 20260504213146 | 77 | 184 | 3.0 | 6.0 | 0.00 | 0.00 | 0.00 | 71 | 1012.1 |
| 20260504213046 | 77 | 105 | 3.0 | 7.0 | 0.00 | 0.00 | 0.00 | 71 | 1012.0 |
| 20260504213026 | 77 | 116 | 3.0 | 7.0 | 0.00 | 0.00 | 0.00 | 71 | 1012.0 |
| 20260504212840 | 77 | 204 | 2.0 | 7.0 | 0.00 | 0.00 | 0.00 | 71 | 1012.0 |
| 20260504212740 | 77 | 105 | 2.0 | 7.0 | 0.00 | 0.00 | 0.00 | 71 | 1012.0 |
| 20260504212653 | 77 | 164 | 2.0 | 7.0 | 0.00 | 0.00 | 0.00 | 72 | 1011.9 |
| 20260504212640 | 77 | 178 | 2.0 | 7.0 | 0.00 | 0.00 | 0.00 | 71 | 1012.0 |
| 20260504212540 | 77 | 100 | 2.0 | 7.0 | 0.00 | 0.00 | 0.00 | 71 | 1012.0 |
| 20260504212526 | 77 | 127 | 2.0 | 7.0 | 0.00 | 0.00 | 0.00 | 72 | 1011.9 |
| 20260504212340 | 77 | 160 | 2.0 | 7.0 | 0.00 | 0.00 | 0.00 | 72 | 1012.0 |
| 20260504212240 | 77 | 145 | 2.0 | 7.0 | 0.00 | 0.00 | 0.00 | 72 | 1012.1 |
| 20260504212133 | 77 | 171 | 2.0 | 8.0 | 0.00 | 0.00 | 0.00 | 72 | 1012.1 |
| 20260504212035 | 77 | 118 | 2.0 | 8.0 | 0.00 | 0.00 | 0.00 | 73 | 1012.1 |
| 20260504211934 | 76 | 106 | 2.0 | 8.0 | 0.00 | 0.00 | 0.00 | 72 | 1012.1 |
| 20260504211918 | 76 | 296 | 2.0 | 8.0 | 0.00 | 0.00 | 0.00 | 72 | 1012.1 |
| 20260504211834 | 76 | 80 | 3.0 | 8.0 | 0.00 | 0.00 | 0.00 | 72 | 1012.1 |
| 20260504211734 | 76 | 165 | 3.0 | 8.0 | 0.00 | 0.00 | 0.00 | 72 | 1012.1 |
| 20260504211633 | 76 | 288 | 3.0 | 8.0 | 0.00 | 0.00 | 0.00 | 72 | 1012.1 |
| 20260504211531 | 76 | 145 | 3.0 | 8.0 | 0.00 | 0.00 | 0.00 | 73 | 1012.2 |
| 20260504211431 | 76 | 252 | 3.0 | 8.0 | 0.00 | 0.00 | 0.00 | 72 | 1012.3 |
| 20260504211415 | 76 | 253 | 3.0 | 8.0 | 0.00 | 0.00 | 0.00 | 72 | 1012.3 |
| 20260504211331 | 76 | 250 | 3.0 | 8.0 | 0.00 | 0.00 | 0.00 | 72 | 1012.3 |
| 20260504211231 | 76 | 123 | 3.0 | 8.0 | 0.00 | 0.00 | 0.00 | 72 | 1012.3 |
| 20260504211125 | 76 | 97 | 3.0 | 8.0 | 0.00 | 0.00 | 0.00 | 72 | 1012.3 |
| 20260504211026 | 77 | 180 | 3.0 | 8.0 | 0.00 | 0.00 | 0.00 | 72 | 1012.4 |
| 20260504210925 | 77 | 109 | 3.0 | 8.0 | 0.00 | 0.00 | 0.00 | 72 | 1012.4 |
| 20260504210915 | 77 | 101 | 3.0 | 8.0 | 0.00 | 0.00 | 0.00 | 72 | 1012.4 |
| 20260504210826 | 77 | 164 | 3.0 | 8.0 | 0.00 | 0.00 | 0.00 | 72 | 1012.4 |
| 20260504210723 | 77 | 80 | 3.0 | 7.0 | 0.00 | 0.00 | 0.00 | 72 | 1012.4 |
| 20260504210623 | 77 | 85 | 3.0 | 7.0 | 0.00 | 0.00 | 0.00 | 72 | 1012.4 |
| 20260504210523 | 77 | 250 | 3.0 | 9.0 | 0.00 | 0.00 | 0.00 | 71 | 1012.5 |
| 20260504210422 | 77 | 187 | 3.0 | 9.0 | 0.00 | 0.00 | 0.00 | 71 | 1012.5 |
| 20260504210415 | 77 | 181 | 3.0 | 9.0 | 0.00 | 0.00 | 0.00 | 71 | 1012.5 |
| 20260504210322 | 77 | 163 | 3.0 | 9.0 | 0.00 | 0.00 | 0.00 | 71 | 1012.5 |
| 20260504210219 | 77 | 78 | 3.0 | 9.0 | 0.00 | 0.00 | 0.00 | 71 | 1012.4 |
| 20260504210119 | 77 | 83 | 3.0 | 10.0 | 0.00 | 0.00 | 0.00 | 71 | 1012.4 |
| 20260504210008 | 77 | 106 | 3.0 | 10.0 | 0.00 | 0.00 | 0.00 | 71 | 1012.4 |
| 20260504205908 | 77 | 91 | 3.0 | 10.0 | 0.00 | 0.00 | 0.00 | 71 | 1012.4 |
| 20260504205808 | 77 | 148 | 3.0 | 10.0 | 0.00 | 0.00 | 0.00 | 71 | 1012.4 |
| 20260504205710 | 77 | 111 | 3.0 | 10.0 | 0.00 | 0.00 | 0.00 | 71 | 1012.5 |
| 20260504205609 | 77 | 329 | 3.0 | 10.0 | 0.00 | 0.00 | 0.00 | 71 | 1012.5 |
| 20260504205509 | 77 | 200 | 4.0 | 10.0 | 0.00 | 0.00 | 0.00 | 71 | 1012.5 |
| 20260504205409 | 77 | 184 | 4.0 | 10.0 | 0.00 | 0.00 | 0.00 | 71 | 1012.5 |
| 20260504205309 | 77 | 86 | 4.0 | 10.0 | 0.00 | 0.00 | 0.00 | 71 | 1012.5 |
| 20260504205206 | 77 | 155 | 4.0 | 10.0 | 0.00 | 0.00 | 0.00 | 71 | 1012.5 |
| 20260504205130 | 78 | 144 | 4.0 | 10.0 | 0.00 | 0.00 | 0.00 | 71 | 1012.5 |
| 20260504205106 | 78 | 132 | 4.0 | 10.0 | 0.00 | 0.00 | 0.00 | 71 | 1012.5 |
| 20260504205016 | 78 | 147 | 4.0 | 10.0 | 0.00 | 0.00 | 0.00 | 71 | 1012.4 |
| 20260504204906 | 78 | 125 | 4.0 | 10.0 | 0.00 | 0.00 | 0.00 | 71 | 1012.5 |
| 20260504204806 | 78 | 93 | 4.0 | 10.0 | 0.00 | 0.00 | 0.00 | 70 | 1012.5 |
| 20260504204706 | 78 | 99 | 4.0 | 10.0 | 0.00 | 0.00 | 0.00 | 70 | 1012.5 |
| 20260504204606 | 78 | 110 | 4.0 | 10.0 | 0.00 | 0.00 | 0.00 | 70 | 1012.5 |
| 20260504204504 | 78 | 96 | 3.0 | 9.0 | 0.00 | 0.00 | 0.00 | 70 | 1012.5 |
| 20260504204410 | 78 | 180 | 3.0 | 9.0 | 0.00 | 0.00 | 0.00 | 70 | 1012.6 |
| 20260504204403 | 78 | 177 | 3.0 | 9.0 | 0.00 | 0.00 | 0.00 | 70 | 1012.6 |
| 20260504204304 | 78 | 129 | 3.0 | 9.0 | 0.00 | 0.00 | 0.00 | 70 | 1012.6 |
| 20260504204203 | 78 | 154 | 3.0 | 9.0 | 0.00 | 0.00 | 0.00 | 70 | 1012.5 |
| 20260504204102 | 78 | 112 | 3.0 | 9.0 | 0.00 | 0.00 | 0.00 | 69 | 1012.5 |
| 20260504204000 | 78 | 82 | 3.0 | 9.0 | 0.00 | 0.00 | 0.00 | 69 | 1012.5 |
| 20260504203910 | 78 | 100 | 3.0 | 9.0 | 0.00 | 0.00 | 0.00 | 69 | 1012.5 |
| 20260504203901 | 78 | 81 | 3.0 | 9.0 | 0.00 | 0.00 | 0.00 | 68 | 1012.6 |
| 20260504203801 | 78 | 176 | 2.0 | 9.0 | 0.00 | 0.00 | 0.00 | 68 | 1012.6 |
| 20260504203657 | 78 | 170 | 2.0 | 8.0 | 0.00 | 0.00 | 0.00 | 68 | 1012.6 |
| 20260504203557 | 78 | 104 | 3.0 | 8.0 | 0.00 | 0.00 | 0.00 | 70 | 1012.6 |
| 20260504203454 | 78 | 202 | 2.0 | 8.0 | 0.00 | 0.00 | 0.00 | 69 | 1012.7 |
| 20260504203408 | 78 | 215 | 3.0 | 8.0 | 0.00 | 0.00 | 0.00 | 69 | 1012.7 |
| 20260504203354 | 78 | 207 | 3.0 | 8.0 | 0.00 | 0.00 | 0.00 | 69 | 1012.7 |
| 20260504203254 | 78 | 110 | 3.0 | 8.0 | 0.00 | 0.00 | 0.00 | 69 | 1012.7 |
| 20260504203154 | 78 | 123 | 3.0 | 8.0 | 0.00 | 0.00 | 0.00 | 69 | 1012.7 |
| 20260504203059 | 79 | 187 | 3.0 | 8.0 | 0.00 | 0.00 | 0.00 | 69 | 1012.8 |
| 20260504203055 | 78 | 97 | 3.0 | 8.0 | 0.00 | 0.00 | 0.00 | 70 | 1012.7 |
| 20260504202955 | 78 | 142 | 2.0 | 6.0 | 0.00 | 0.00 | 0.00 | 70 | 1012.7 |
| 20260504202946 | 78 | 160 | 3.0 | 6.0 | 0.00 | 0.00 | 0.00 | 69 | 1012.7 |
| 20260504202942 | 78 | 219 | 3.0 | 6.0 | 0.00 | 0.00 | 0.00 | 69 | 1012.7 |
| 20260504202755 | 78 | 146 | 2.0 | 6.0 | 0.00 | 0.00 | 0.00 | 69 | 1012.7 |
| 20260504202717 | 78 | 133 | 3.0 | 8.0 | 0.00 | 0.00 | 0.00 | 69 | 1012.7 |
| 20260504202548 | 79 | 107 | 3.0 | 8.0 | 0.00 | 0.00 | 0.00 | 69 | 1012.8 |
| 20260504202500 | 79 | 84 | 3.0 | 8.0 | 0.00 | 0.00 | 0.00 | 69 | 1012.8 |
| 20260504202346 | 79 | 226 | 3.0 | 8.0 | 0.00 | 0.00 | 0.00 | 69 | 1012.8 |
| 20260504202242 | 79 | 189 | 3.0 | 8.0 | 0.00 | 0.00 | 0.00 | 68 | 1012.7 |
| 20260504202140 | 79 | 72 | 3.0 | 8.0 | 0.00 | 0.00 | 0.00 | 68 | 1012.7 |
| 20260504202037 | 79 | 196 | 3.0 | 8.0 | 0.00 | 0.00 | 0.00 | 68 | 1012.7 |
| 20260504201931 | 80 | 151 | 3.0 | 8.0 | 0.00 | 0.00 | 0.00 | 67 | 1012.8 |
| 20260504201855 | 80 | 325 | 3.0 | 8.0 | 0.00 | 0.00 | 0.00 | 67 | 1012.8 |
| 20260504201831 | 80 | 307 | 3.0 | 9.0 | 0.00 | 0.00 | 0.00 | 67 | 1012.8 |
| 20260504201731 | 80 | 159 | 3.0 | 9.0 | 0.00 | 0.00 | 0.00 | 66 | 1012.8 |
| 20260504201630 | 80 | 103 | 3.0 | 9.0 | 0.00 | 0.00 | 0.00 | 66 | 1012.8 |
| 20260504201530 | 80 | 188 | 3.0 | 9.0 | 0.00 | 0.00 | 0.00 | 66 | 1012.8 |
| 20260504201427 | 80 | 138 | 3.0 | 9.0 | 0.00 | 0.00 | 0.00 | 66 | 1012.8 |
| 20260504201345 | 80 | 193 | 3.0 | 9.0 | 0.00 | 0.00 | 0.00 | 66 | 1012.8 |
| 20260504201327 | 80 | 99 | 3.0 | 9.0 | 0.00 | 0.00 | 0.00 | 66 | 1012.8 |
| 20260504201228 | 80 | 181 | 3.0 | 9.0 | 0.00 | 0.00 | 0.00 | 66 | 1012.8 |
| 20260504201127 | 80 | 229 | 3.0 | 9.0 | 0.00 | 0.00 | 0.00 | 66 | 1012.8 |
| 20260504201022 | 80 | 1 | 3.0 | 9.0 | 0.00 | 0.00 | 0.00 | 66 | 1012.8 |
| 20260504200922 | 79 | 193 | 3.0 | 9.0 | 0.00 | 0.00 | 0.00 | 67 | 1012.8 |
| 20260504200845 | 79 | 163 | 3.0 | 9.0 | 0.00 | 0.00 | 0.00 | 67 | 1012.8 |
| 20260504200821 | 79 | 99 | 3.0 | 9.0 | 0.00 | 0.00 | 0.00 | 67 | 1012.8 |
| 20260504200719 | 79 | 141 | 3.0 | 9.0 | 0.00 | 0.00 | 0.00 | 67 | 1012.8 |
| 20260504200619 | 79 | 170 | 3.0 | 9.0 | 0.00 | 0.00 | 0.00 | 67 | 1012.9 |
| 20260504200519 | 79 | 186 | 3.0 | 9.0 | 0.00 | 0.00 | 0.00 | 68 | 1012.8 |
| 20260504200419 | 79 | 237 | 3.0 | 9.0 | 0.00 | 0.00 | 0.00 | 68 | 1012.8 |
| 20260504200343 | 79 | 148 | 3.0 | 9.0 | 0.00 | 0.00 | 0.00 | 68 | 1012.8 |
| 20260504200316 | 79 | 108 | 3.0 | 9.0 | 0.00 | 0.00 | 0.00 | 68 | 1012.8 |
| 20260504200212 | 79 | 126 | 3.0 | 9.0 | 0.00 | 0.00 | 0.00 | 67 | 1012.8 |
| 20260504200112 | 79 | 87 | 3.0 | 9.0 | 0.00 | 0.00 | 0.00 | 67 | 1012.8 |
| 20260504200010 | 79 | 229 | 3.0 | 10.0 | 0.00 | 0.00 | 0.00 | 67 | 1012.8 |
| 20260504195910 | 79 | 160 | 3.0 | 10.0 | 0.00 | 0.00 | 0.00 | 68 | 1012.8 |
| 20260504195839 | 79 | 176 | 3.0 | 10.0 | 0.00 | 0.00 | 0.00 | 68 | 1012.8 |
| 20260504195810 | 79 | 173 | 3.0 | 10.0 | 0.00 | 0.00 | 0.00 | 68 | 1012.8 |
| 20260504195710 | 79 | 176 | 3.0 | 10.0 | 0.00 | 0.00 | 0.00 | 66 | 1013.0 |
| 20260504195607 | 79 | 113 | 3.0 | 10.0 | 0.00 | 0.00 | 0.00 | 66 | 1013.0 |
| 20260504195506 | 79 | 240 | 3.0 | 10.0 | 0.00 | 0.00 | 0.00 | 66 | 1013.0 |
| 20260504195410 | 79 | 138 | 3.0 | 10.0 | 0.00 | 0.00 | 0.00 | 66 | 1013.0 |
| 20260504195340 | 79 | 141 | 3.0 | 10.0 | 0.00 | 0.00 | 0.00 | 66 | 1013.0 |
| 20260504195304 | 79 | 89 | 3.0 | 10.0 | 0.00 | 0.00 | 0.00 | 65 | 1013.0 |
| 20260504195159 | 79 | 283 | 3.0 | 10.0 | 0.00 | 0.00 | 0.00 | 66 | 1013.0 |
| 20260504195056 | 79 | 100 | 3.0 | 10.0 | 0.00 | 0.00 | 0.00 | 67 | 1013.0 |
| 20260504194956 | 79 | 219 | 3.0 | 8.0 | 0.00 | 0.00 | 0.00 | 67 | 1013.0 |
| 20260504194853 | 79 | 266 | 3.0 | 8.0 | 0.00 | 0.00 | 0.00 | 67 | 1013.1 |
| 20260504194840 | 79 | 224 | 3.0 | 8.0 | 0.00 | 0.00 | 0.00 | 67 | 1013.1 |
| 20260504194750 | 79 | 169 | 3.0 | 8.0 | 0.00 | 0.00 | 0.00 | 67 | 1013.1 |
| 20260504194647 | 79 | 127 | 3.0 | 8.0 | 0.00 | 0.00 | 0.00 | 67 | 1013.1 |
| 20260504194544 | 79 | 161 | 3.0 | 8.0 | 0.00 | 0.00 | 0.00 | 67 | 1013.1 |
| 20260504194444 | 79 | 173 | 3.0 | 8.0 | 0.00 | 0.00 | 0.00 | 68 | 1013.1 |
| 20260504194342 | 79 | 187 | 3.0 | 8.0 | 0.00 | 0.00 | 0.00 | 67 | 1013.1 |
| 20260504194336 | 79 | 176 | 3.0 | 8.0 | 0.00 | 0.00 | 0.00 | 67 | 1013.1 |
| 20260504194241 | 79 | 105 | 3.0 | 8.0 | 0.00 | 0.00 | 0.00 | 67 | 1013.1 |
| 20260504194138 | 79 | 18 | 3.0 | 8.0 | 0.00 | 0.00 | 0.00 | 67 | 1013.1 |
| 20260504194038 | 79 | 102 | 3.0 | 6.0 | 0.00 | 0.00 | 0.00 | 67 | 1013.1 |
| 20260504193930 | 79 | 177 | 3.0 | 6.0 | 0.00 | 0.00 | 0.00 | 67 | 1013.1 |
| 20260504193837 | 79 | 127 | 3.0 | 6.0 | 0.00 | 0.00 | 0.00 | 67 | 1013.2 |
| 20260504193823 | 79 | 215 | 3.0 | 6.0 | 0.00 | 0.00 | 0.00 | 67 | 1013.2 |
| 20260504193723 | 80 | 100 | 3.0 | 7.0 | 0.00 | 0.00 | 0.00 | 66 | 1013.3 |
| 20260504193620 | 80 | 106 | 3.0 | 7.0 | 0.00 | 0.00 | 0.00 | 66 | 1013.3 |
| 20260504193520 | 80 | 99 | 3.0 | 7.0 | 0.00 | 0.00 | 0.00 | 65 | 1013.4 |
| 20260504193418 | 80 | 325 | 3.0 | 7.0 | 0.00 | 0.00 | 0.00 | 65 | 1013.4 |
| 20260504193337 | 80 | 180 | 3.0 | 7.0 | 0.00 | 0.00 | 0.00 | 65 | 1013.4 |
| 20260504193318 | 80 | 124 | 3.0 | 7.0 | 0.00 | 0.00 | 0.00 | 65 | 1013.4 |
| 20260504193218 | 80 | 273 | 3.0 | 9.0 | 0.00 | 0.00 | 0.00 | 64 | 1013.5 |
| 20260504193118 | 79 | 135 | 3.0 | 9.0 | 0.00 | 0.00 | 0.00 | 66 | 1013.4 |
| 20260504193018 | 79 | 96 | 3.0 | 9.0 | 0.00 | 0.00 | 0.00 | 66 | 1013.4 |
| 20260504192918 | 79 | 184 | 3.0 | 9.0 | 0.00 | 0.00 | 0.00 | 66 | 1013.4 |
| 20260504192837 | 79 | 226 | 3.0 | 9.0 | 0.00 | 0.00 | 0.00 | 65 | 1013.4 |
| 20260504192818 | 79 | 119 | 3.0 | 9.0 | 0.00 | 0.00 | 0.00 | 65 | 1013.4 |
| 20260504192718 | 79 | 160 | 3.0 | 9.0 | 0.00 | 0.00 | 0.00 | 66 | 1013.4 |
| 20260504192618 | 79 | 147 | 3.0 | 9.0 | 0.00 | 0.00 | 0.00 | 66 | 1013.3 |
| 20260504192518 | 79 | 174 | 3.0 | 9.0 | 0.00 | 0.00 | 0.00 | 66 | 1013.3 |
| 20260504192418 | 79 | 182 | 3.0 | 9.0 | 0.00 | 0.00 | 0.00 | 66 | 1013.3 |
| 20260504192338 | 79 | 163 | 3.0 | 9.0 | 0.00 | 0.00 | 0.00 | 66 | 1013.2 |
| 20260504192317 | 79 | 122 | 3.0 | 9.0 | 0.00 | 0.00 | 0.00 | 66 | 1013.2 |
| 20260504192217 | 79 | 88 | 3.0 | 9.0 | 0.00 | 0.00 | 0.00 | 66 | 1013.2 |
| 20260504192119 | 79 | 94 | 2.0 | 8.0 | 0.00 | 0.00 | 0.00 | 66 | 1013.2 |
| 20260504192102 | 79 | 265 | 3.0 | 8.0 | 0.00 | 0.00 | 0.00 | 66 | 1013.3 |
| 20260504192017 | 79 | 154 | 2.0 | 8.0 | 0.00 | 0.00 | 0.00 | 66 | 1013.2 |
| 20260504191943 | 79 | 134 | 3.0 | 8.0 | 0.00 | 0.00 | 0.00 | 66 | 1013.3 |
| 20260504191812 | 79 | 202 | 3.0 | 8.0 | 0.00 | 0.00 | 0.00 | 66 | 1013.3 |
| 20260504191712 | 79 | 173 | 3.0 | 8.0 | 0.00 | 0.00 | 0.00 | 66 | 1013.3 |
| 20260504191612 | 79 | 189 | 3.0 | 8.0 | 0.00 | 0.00 | 0.00 | 66 | 1013.3 |
| 20260504191511 | 80 | 123 | 3.0 | 9.0 | 0.00 | 0.00 | 0.00 | 65 | 1013.3 |
| 20260504191409 | 80 | 113 | 4.0 | 9.0 | 0.00 | 0.00 | 0.00 | 65 | 1013.3 |
| 20260504191338 | 80 | 147 | 4.0 | 9.0 | 0.00 | 0.00 | 0.00 | 65 | 1013.3 |
| 20260504191306 | 80 | 287 | 4.0 | 9.0 | 0.00 | 0.00 | 0.00 | 65 | 1013.3 |
| 20260504191207 | 80 | 175 | 4.0 | 9.0 | 0.00 | 0.00 | 0.00 | 65 | 1013.3 |
| 20260504191104 | 80 | 171 | 4.0 | 9.0 | 0.00 | 0.00 | 0.00 | 66 | 1013.3 |
| 20260504191004 | 80 | 205 | 4.0 | 9.0 | 0.00 | 0.00 | 0.00 | 65 | 1013.3 |
| 20260504190903 | 80 | 151 | 3.0 | 9.0 | 0.00 | 0.00 | 0.00 | 66 | 1013.4 |
| 20260504190835 | 80 | 170 | 3.0 | 9.0 | 0.00 | 0.00 | 0.00 | 66 | 1013.4 |
| 20260504190803 | 80 | 206 | 3.0 | 9.0 | 0.00 | 0.00 | 0.00 | 65 | 1013.4 |
| 20260504190700 | 80 | 102 | 3.0 | 9.0 | 0.00 | 0.00 | 0.00 | 65 | 1013.4 |
| 20260504190559 | 81 | 104 | 3.0 | 9.0 | 0.00 | 0.00 | 0.00 | 64 | 1013.4 |
| 20260504190553 | 80 | 97 | 3.0 | 9.0 | 0.00 | 0.00 | 0.00 | 66 | 1013.5 |
| 20260504190500 | 81 | 92 | 3.0 | 9.0 | 0.00 | 0.00 | 0.00 | 64 | 1013.4 |
| 20260504190437 | 80 | 195 | 3.0 | 9.0 | 0.00 | 0.00 | 0.00 | 66 | 1013.5 |
| 20260504190259 | 80 | 90 | 3.0 | 8.0 | 0.00 | 0.00 | 0.00 | 65 | 1013.4 |
| 20260504190201 | 80 | 104 | 3.0 | 8.0 | 0.00 | 0.00 | 0.00 | 67 | 1013.4 |
| 20260504190100 | 80 | 40 | 3.0 | 8.0 | 0.00 | 0.00 | 0.00 | 68 | 1013.4 |
| 20260504190000 | 79 | 272 | 3.0 | 8.0 | 0.00 | 0.00 | 0.00 | 65 | 1013.5 |
| 20260504185857 | 79 | 63 | 3.0 | 8.0 | 0.00 | 0.00 | 0.00 | 65 | 1013.5 |
| 20260504185828 | 79 | 96 | 3.0 | 8.0 | 0.00 | 0.00 | 0.00 | 65 | 1013.5 |
| 20260504185757 | 79 | 167 | 3.0 | 8.0 | 0.00 | 0.00 | 0.00 | 66 | 1013.5 |
| 20260504185657 | 79 | 134 | 3.0 | 8.0 | 0.00 | 0.00 | 0.00 | 66 | 1013.5 |
| 20260504185557 | 80 | 103 | 3.0 | 7.0 | 0.00 | 0.00 | 0.00 | 66 | 1013.5 |
| 20260504185546 | 80 | 167 | 3.0 | 6.0 | 0.00 | 0.00 | 0.00 | 65 | 1013.5 |
| 20260504185454 | 80 | 118 | 3.0 | 6.0 | 0.00 | 0.00 | 0.00 | 66 | 1013.5 |
| 20260504185435 | 80 | 117 | 3.0 | 6.0 | 0.00 | 0.00 | 0.00 | 65 | 1013.5 |
| 20260504185254 | 80 | 80 | 3.0 | 6.0 | 0.00 | 0.00 | 0.00 | 65 | 1013.5 |
| 20260504185148 | 80 | 217 | 3.0 | 9.0 | 0.00 | 0.00 | 0.00 | 65 | 1013.5 |
| 20260504185048 | 79 | 128 | 3.0 | 9.0 | 0.00 | 0.00 | 0.00 | 65 | 1013.6 |
| 20260504184945 | 79 | 109 | 3.0 | 10.0 | 0.00 | 0.00 | 0.00 | 65 | 1013.6 |
| 20260504184845 | 79 | 71 | 3.0 | 10.0 | 0.00 | 0.00 | 0.00 | 65 | 1013.6 |
| 20260504184824 | 79 | 101 | 3.0 | 10.0 | 0.00 | 0.00 | 0.00 | 65 | 1013.6 |
| 20260504184744 | 79 | 131 | 3.0 | 13.0 | 0.00 | 0.00 | 0.00 | 65 | 1013.6 |
| 20260504184636 | 79 | 156 | 4.0 | 13.0 | 0.00 | 0.00 | 0.00 | 65 | 1013.6 |
| 20260504184533 | 79 | 278 | 4.0 | 13.0 | 0.00 | 0.00 | 0.00 | 65 | 1013.6 |
| 20260504184427 | 79 | 182 | 3.0 | 13.0 | 0.00 | 0.00 | 0.00 | 65 | 1013.6 |